GFSNE_sfc_30mbdewp_003.txt.gz
Dewpoint
16 19 19 19 22 22 23 22 20 19 18 18 20 20 24 22 25 25 22 24 28 27 29 34 35 36 33 37 41 37 36 42 46 49 50 51 52 52
14 16 17 18 19 20 21 20 19 19 18 20 20 22 23 24 23 25 26 28 27 26 25 29 32 33 37 36 36 37 37 41 43 43 47 51 53 53
14 15 16 17 17 17 18 19 19 20 19 19 21 23 23 23 24 25 26 26 25 25 24 25 29 32 34 37 37 38 41 41 44 45 47 51 52 53
13 14 15 15 18 19 18 18 19 19 19 19 22 22 22 24 25 24 23 23 24 25 23 25 26 29 31 33 36 37 40 43 43 42 44 47 50 52
14 15 16 17 18 19 18 18 19 20 22 22 22 22 24 25 25 23 22 22 23 25 24 23 25 28 30 34 35 38 40 41 39 40 47 48 49 51
17 18 18 18 17 18 18 20 21 23 24 24 23 25 24 26 24 21 20 20 21 22 24 26 26 28 32 32 30 32 35 37 38 41 43 45 49 49
19 18 17 19 18 18 18 21 24 25 23 24 25 24 24 21 21 19 18 21 23 24 26 27 28 29 28 28 29 32 34 35 37 40 42 44 46 47
19 17 17 17 16 17 20 21 21 21 26 26 28 25 22 19 17 20 22 24 21 23 24 25 26 27 28 30 29 32 33 34 36 36 40 43 44 45
18 16 16 15 17 22 23 22 24 24 23 22 24 19 17 21 24 25 25 20 20 23 26 25 29 29 30 28 28 29 33 35 34 37 41 43 44 44
16 16 16 19 22 22 22 27 27 26 20 20 18 17 22 24 25 20 22 27 26 26 25 25 27 30 27 30 27 30 27 34 37 38 37 38 40 41
17 18 19 21 21 26 25 25 17 16 19 19 19 19 19 18 19 21 24 24 22 22 23 23 26 26 27 27 27 30 34 29 32 34 35 37 39 40
19 22 21 20 22 25 22 16 17 19 22 21 19 17 17 19 19 22 23 23 22 20 21 22 23 25 24 23 29 27 27 27 32 35 36 41 42 43
23 21 20 20 24 21 16 15 18 20 20 17 16 18 19 20 21 22 22 23 22 21 23 23 25 24 25 23 24 26 27 30 32 32 39 44 45 46
21 18 20 28 19 14 14 15 16 17 15 16 17 18 19 20 21 22 22 23 24 24 25 27 25 25 24 23 21 24 26 28 31 31 35 38 41 44
18 20 28 18 13 14 13 14 14 15 16 18 20 19 20 21 22 22 24 25 25 25 26 29 29 28 26 22 21 22 25 29 31 31 32 32 33 36
24 28 16 13 13 13 14 15 15 16 16 18 19 21 21 21 21 23 23 24 24 25 29 29 27 26 23 24 24 22 26 27 30 31 31 31 32 34
23 16 13 13 14 14 14 15 15 16 18 20 20 20 20 21 21 23 24 25 24 23 22 24 25 25 26 26 25 27 28 28 30 31 31 31 31 32
15 13 13 15 15 14 14 15 16 18 20 20 20 20 20 20 20 23 24 25 23 22 22 22 21 21 24 26 28 26 27 27 30 31 31 30 30 33
13 15 15 15 15 15 15 16 19 20 21 20 20 20 20 20 21 21 24 24 23 22 22 22 20 18 21 18 23 28 25 27 28 27 28 29 30 31
15 15 15 15 15 15 17 19 19 19 19 20 20 20 20 21 21 22 21 20 20 20 21 22 19 18 16 18 20 23 29 26 26 25 25 27 31 34
15 15 16 15 16 18 20 20 20 19 20 20 19 20 21 22 22 22 20 18 21 22 20 21 22 21 21 23 21 22 26 30 29 27 27 25 25 27
16 16 16 16 19 20 20 20 19 19 19 19 20 21 22 23 23 23 22 21 21 23 23 25 23 23 22 21 20 22 24 27 30 31 30 27 23 22
16 16 17 18 20 20 20 19 18 18 19 20 21 22 23 23 23 23 23 22 23 24 24 24 23 23 22 21 21 21 22 24 26 26 27 27 26 22

GFSNE_sfc_30mbdewp_006.txt.gz
Dewpoint
14 16 16 18 18 19 22 20 20 17 18 17 16 19 20 21 22 23 22 23 25 25 26 27 26 27 27 27 26 28 30 31 31 35 39 39 45 48
13 13 14 16 17 18 19 20 20 19 17 17 19 18 18 21 22 22 22 24 25 25 23 23 24 25 26 27 28 27 32 33 32 31 35 39 41 46
11 11 14 16 16 18 19 20 20 19 19 18 18 18 21 21 21 23 24 25 24 23 23 22 22 23 24 25 25 27 32 31 33 37 37 38 43 44
12 14 16 16 18 18 20 19 20 19 18 17 21 22 21 22 23 24 24 25 23 22 20 21 19 21 23 24 25 26 29 34 37 38 40 40 39 39
16 18 19 19 18 19 19 19 18 18 21 23 22 23 23 23 24 24 24 22 20 17 18 21 22 23 25 26 26 29 32 34 32 31 37 35 38 42
20 21 20 20 19 19 18 19 19 21 23 23 26 27 24 24 29 23 19 17 17 19 21 24 23 22 24 25 24 27 28 28 29 32 35 35 39 42
21 21 21 21 22 18 18 19 22 21 25 28 25 26 24 23 20 18 17 19 19 20 24 19 21 22 24 25 27 27 28 31 31 35 35 36 36 38
20 21 19 18 18 19 20 20 20 26 27 27 25 19 17 17 21 18 19 20 21 21 19 21 23 23 25 29 26 30 31 27 29 30 31 35 35 38
20 19 17 17 19 20 22 24 31 30 24 18 16 15 20 25 23 24 25 24 20 20 22 22 24 25 23 24 26 28 32 31 25 29 33 35 35 38
19 18 18 18 20 22 23 30 28 23 18 17 16 20 23 22 20 18 19 22 23 23 22 21 23 20 22 26 26 25 28 28 34 35 33 34 35 37
19 19 21 22 22 21 25 28 24 19 17 18 25 24 17 16 17 19 22 21 18 18 20 22 20 20 22 23 27 28 32 27 25 26 28 30 33 35
20 22 23 21 19 23 24 21 19 16 18 25 16 15 16 18 19 20 23 20 19 18 18 20 21 22 20 22 25 23 26 28 26 27 29 32 34 35
22 23 22 19 25 24 17 16 15 18 20 14 15 17 18 19 21 21 21 22 20 19 21 23 23 22 22 22 23 25 26 26 25 27 31 34 36 41
23 22 19 25 23 16 15 15 16 16 15 16 17 18 19 19 20 21 22 22 24 24 25 26 23 24 23 22 20 20 22 24 27 30 31 33 36 41
20 21 26 22 16 14 14 14 14 15 16 18 20 19 20 21 22 22 23 23 23 24 27 28 26 26 23 21 20 21 23 23 28 31 31 32 33 35
23 27 19 15 13 14 14 14 15 15 16 19 20 20 20 20 20 21 21 21 23 25 25 26 25 24 22 21 22 23 24 23 29 31 31 32 33 36
23 17 13 13 15 14 14 14 15 16 20 20 20 19 19 19 20 20 22 22 22 23 22 24 24 23 24 23 23 26 27 27 30 31 32 31 32 34
15 13 14 15 14 14 14 15 17 19 20 20 19 19 19 19 19 21 22 22 20 21 21 23 21 19 22 24 27 25 26 27 28 30 32 31 30 32
14 15 15 15 15 15 16 18 18 20 21 20 19 19 19 19 19 20 21 22 21 21 22 23 20 18 17 17 23 30 25 27 29 29 31 31 31 32
15 16 16 15 15 17 18 19 19 19 19 19 19 18 19 20 20 20 21 21 21 22 22 23 21 20 17 17 19 26 30 27 27 27 29 31 33 36
15 16 15 16 18 19 19 19 19 19 19 18 18 19 20 20 21 22 22 22 22 21 21 22 23 27 24 24 22 24 27 31 30 27 27 27 29 30
16 15 16 17 19 19 19 19 18 18 18 18 19 20 21 22 22 21 22 21 21 22 23 23 23 23 24 22 21 23 25 28 30 32 32 28 24 25
15 17 17 18 19 19 19 18 18 18 18 19 20 21 22 22 21 22 23 23 23 24 24 23 23 22 22 24 23 24 25 25 26 25 26 32 33 34

GFSNE_sfc_30mbdewp_009.txt.gz
Dewpoint
14 15 16 15 15 18 20 20 18 18 17 17 17 19 20 19 18 21 21 21 22 24 24 25 26 27 25 28 26 25 26 27 29 30 29 36 36 34
12 13 13 14 15 17 18 21 21 19 19 18 18 19 18 18 21 21 21 23 23 24 24 25 25 23 24 23 26 24 25 27 29 30 31 35 36 37
13 14 16 17 18 19 20 20 21 21 19 19 18 18 19 21 21 22 23 22 24 25 25 22 22 22 21 21 24 26 26 25 25 26 28 34 40 40
15 17 19 19 21 21 20 20 21 20 19 18 19 21 22 22 23 25 23 24 26 25 21 20 19 19 21 21 22 26 29 29 29 29 31 35 35 38
18 20 20 20 21 21 21 20 20 19 20 22 25 24 23 27 27 26 26 24 19 18 18 17 18 20 24 23 21 22 24 27 26 27 30 35 31 35
20 21 20 21 21 21 20 19 20 21 22 21 22 28 27 26 20 17 15 18 20 19 18 20 23 25 19 21 22 23 25 25 28 28 29 32 34 38
19 20 20 21 21 20 20 20 20 20 23 28 27 25 20 16 15 15 19 22 21 20 23 26 19 19 21 22 23 24 25 29 27 32 36 31 30 33
20 19 20 20 19 20 20 21 22 24 29 27 26 20 17 16 16 20 24 23 18 20 19 20 20 20 22 22 25 24 21 23 25 30 30 32 28 29
19 20 20 19 20 21 22 23 25 28 27 24 20 18 17 18 25 24 19 18 19 20 21 21 21 20 20 23 21 20 23 26 28 28 28 27 27 29
20 20 20 20 23 22 22 22 27 29 24 21 19 19 25 24 17 16 19 22 22 20 19 18 19 18 19 20 21 22 23 29 30 33 35 33 34 30
19 21 23 23 22 20 21 28 26 21 18 19 24 22 17 16 18 19 21 20 18 17 18 18 19 19 20 21 22 24 25 26 26 26 26 26 27 27
20 23 24 21 18 21 28 22 17 15 21 24 14 14 16 17 19 20 22 19 18 17 16 18 20 20 19 21 23 25 25 24 26 30 29 27 28 29
25 23 23 20 27 23 18 14 14 19 17 14 15 16 18 19 18 20 22 22 19 18 19 22 22 21 21 20 22 24 25 26 25 26 28 31 32 32
23 21 21 29 17 16 15 15 16 16 14 16 17 18 18 19 20 21 22 23 24 23 24 25 23 23 20 20 18 19 21 23 26 26 28 31 33 35
21 24 24 17 14 14 15 15 15 15 17 19 19 18 19 21 22 22 22 22 22 23 25 27 26 24 21 18 19 20 23 24 27 28 31 31 31 33
25 21 15 13 14 15 14 14 15 17 19 20 19 19 20 21 20 21 21 21 22 21 22 25 26 25 20 19 20 20 24 24 28 30 31 32 33 36
18 14 12 14 14 14 14 14 16 18 19 19 19 19 19 19 19 20 21 21 20 21 21 22 24 22 21 21 19 23 25 26 29 30 31 31 32 35
15 13 14 15 15 14 14 16 17 18 19 19 19 19 19 19 19 20 20 21 20 21 21 23 22 19 20 22 26 24 26 26 30 31 32 30 30 32
14 14 15 15 14 15 17 18 18 18 19 18 19 19 18 18 19 19 20 21 21 22 22 23 22 19 17 16 22 31 26 27 29 31 31 31 30 32
15 15 15 14 15 17 18 18 18 18 18 19 19 18 19 19 19 19 21 21 22 22 21 23 22 23 19 18 18 25 31 29 27 28 30 32 33 35
15 14 15 16 18 18 18 18 18 18 19 18 18 18 19 19 19 21 20 21 23 21 21 21 23 27 26 25 23 24 27 31 31 29 29 30 30 31
14 15 16 17 18 18 18 18 17 17 17 18 18 19 20 21 21 20 20 21 21 22 23 23 23 25 24 23 23 24 25 27 31 33 34 33 28 28
16 17 17 18 18 18 18 17 17 17 17 18 18 19 21 21 23 22 21 22 22 23 23 23 23 23 24 24 24 24 24 25 28 29 31 34 34 34

GFSNE_sfc_30mbdewp_012.txt.gz
Dewpoint
13 15 15 15 16 16 17 19 19 17 17 16 18 20 20 20 19 19 20 22 23 25 24 24 24 25 27 28 31 29 28 28 26 30 29 28 31 32
14 13 15 16 18 19 19 20 21 20 19 19 20 19 19 19 19 21 22 23 24 24 23 22 22 23 26 25 23 25 28 25 24 26 28 27 28 32
13 15 17 19 19 20 21 22 22 21 20 20 20 20 20 21 22 23 24 25 26 23 22 22 21 22 23 24 22 22 23 25 27 28 28 29 28 29
15 17 19 19 20 21 22 22 22 22 21 20 22 24 23 24 23 27 29 23 21 20 19 19 20 19 19 20 22 23 23 31 28 26 26 29 31 33
17 18 20 20 20 21 22 22 22 22 23 21 20 21 21 23 29 22 19 16 14 15 18 20 20 20 22 26 26 27 21 22 24 26 26 27 28 28
18 20 20 20 20 21 21 21 20 20 20 21 23 25 28 25 19 16 15 16 16 18 25 23 20 21 21 21 20 21 22 23 24 26 27 26 26 29
18 19 20 21 22 21 20 21 21 23 27 27 22 23 25 17 16 16 16 17 24 20 17 17 19 19 19 20 20 21 21 22 24 26 27 27 28 28
17 19 20 21 20 21 22 21 22 22 22 22 26 21 18 18 18 18 22 19 15 17 17 18 19 19 20 20 21 21 22 22 26 25 24 29 29 28
18 19 19 20 22 22 24 23 23 23 29 22 19 19 18 21 25 21 18 18 18 19 20 18 19 18 19 18 19 20 22 22 23 27 29 29 28 30
19 19 20 22 23 21 20 23 28 25 20 17 16 20 24 19 16 17 20 22 22 19 18 17 18 17 18 18 20 21 22 23 24 26 30 33 32 31
20 20 23 23 21 20 28 24 19 15 14 20 22 18 16 17 18 22 21 19 16 15 17 17 18 18 19 19 20 21 23 24 24 28 30 29 31 32
21 25 25 21 22 26 19 17 15 14 22 19 14 14 16 17 19 19 22 18 17 16 15 18 19 19 18 20 21 22 22 23 23 25 26 29 31 32
25 22 20 24 21 17 16 15 16 18 18 14 15 16 18 19 19 21 23 22 18 17 18 22 21 20 20 19 19 19 20 23 22 25 27 30 32 32
20 22 26 21 16 15 16 16 17 17 15 16 17 18 18 19 20 21 22 23 23 22 23 24 21 22 21 20 17 17 19 21 24 25 26 28 31 32
23 22 20 16 15 15 16 16 16 15 17 19 18 18 19 21 22 21 21 21 22 22 25 25 24 23 23 20 18 18 19 21 25 28 29 30 31 31
21 20 15 14 15 15 15 14 15 16 19 19 19 19 20 19 20 21 20 19 20 20 21 24 26 25 21 20 20 18 21 21 26 28 30 31 32 33
18 14 12 13 14 14 14 15 16 17 18 18 18 18 18 18 19 19 20 21 19 20 21 23 24 25 22 21 19 21 22 25 28 30 31 31 32 33
14 13 14 15 15 14 15 16 17 17 17 18 18 17 18 18 18 20 20 20 20 21 22 23 23 21 21 21 26 24 27 27 28 31 31 30 29 32
13 15 15 15 15 15 16 17 16 17 17 17 17 18 18 17 18 18 19 20 20 22 22 23 22 21 18 18 22 29 27 29 29 29 31 31 30 31
15 15 15 15 16 16 17 17 17 16 16 17 18 17 18 18 18 18 19 20 21 22 21 22 22 23 21 20 19 24 31 30 30 30 29 32 33 34
15 15 15 16 17 17 17 17 17 17 18 17 16 17 18 18 18 19 20 21 22 21 21 21 23 28 27 26 23 24 28 33 33 30 30 29 29 30
15 15 16 17 17 17 17 17 16 16 16 16 17 18 18 19 19 20 21 20 21 21 22 23 24 25 24 23 22 24 27 30 33 34 34 32 30 27
16 16 16 17 17 17 17 16 16 16 16 17 17 18 19 19 20 23 22 22 22 23 23 22 22 23 24 24 24 24 26 28 29 29 31 34 34 33

GFSNE_sfc_30mbdewp_018.txt.gz
Dewpoint
15 16 15 15 17 18 19 20 19 15 13 16 18 20 22 22 22 22 22 23 24 24 24 25 27 28 29 28 26 26 24 25 27 29 32 33 33 35
16 16 15 16 18 20 20 21 21 20 19 18 19 21 22 22 23 23 23 24 24 24 25 27 27 25 26 24 22 22 23 24 28 30 31 31 32 34
17 16 17 18 19 20 21 21 21 22 21 21 21 21 23 22 20 21 22 22 24 31 29 26 23 20 20 22 23 25 27 27 29 30 28 29 30 32
17 17 17 18 19 20 21 21 21 22 22 21 22 22 20 21 22 24 25 26 29 21 19 19 19 20 20 22 25 26 26 26 26 26 27 28 28 30
18 18 18 19 19 20 20 21 21 22 24 23 20 21 22 24 26 25 20 18 16 16 17 19 19 20 21 24 22 24 24 25 27 26 25 27 28 29
19 19 19 19 19 21 21 21 21 20 20 20 21 24 27 23 17 14 14 16 16 18 21 21 20 19 19 19 20 20 20 21 22 23 24 26 26 27
19 19 19 21 22 22 21 21 20 21 23 26 23 20 18 15 14 15 16 19 20 19 17 18 18 18 18 19 20 20 20 21 22 23 25 28 29 28
19 20 20 21 21 22 22 22 23 29 25 22 19 17 15 15 16 19 22 19 17 18 18 21 21 19 19 18 18 20 21 22 23 24 25 27 27 28
20 20 20 20 22 22 24 24 30 23 20 19 16 16 16 19 24 22 21 20 19 20 21 20 19 17 17 17 18 20 21 22 23 24 25 28 28 27
20 20 20 21 23 22 22 29 22 20 18 17 17 20 25 21 18 19 23 23 22 18 17 17 18 17 17 17 19 20 21 22 22 24 25 26 26 25
20 21 23 22 21 21 26 22 18 17 16 19 24 21 18 19 20 23 21 19 16 15 16 16 17 17 18 18 19 21 21 21 21 22 23 24 26 26
20 21 22 21 21 26 19 17 17 16 21 24 15 15 17 17 20 19 20 18 17 16 15 18 18 19 17 17 18 19 20 21 22 24 25 26 26 27
18 22 22 21 22 18 18 17 18 22 19 15 15 16 18 18 18 19 20 21 18 17 18 21 20 19 18 18 19 20 21 22 23 24 25 28 29 30
22 21 20 21 18 17 17 19 20 19 15 16 17 17 17 17 18 19 20 21 21 22 23 23 20 20 19 18 17 20 21 23 25 25 25 26 28 30
20 20 20 18 16 16 17 18 17 15 16 18 17 17 17 18 19 19 19 20 20 21 22 22 23 22 22 21 20 21 23 23 24 24 26 26 26 27
20 19 17 15 15 16 15 15 15 15 17 18 17 17 17 17 17 18 18 18 19 18 20 22 24 26 23 22 23 22 24 22 26 28 29 31 31 32
18 15 13 14 14 14 14 14 15 15 16 16 17 16 16 16 16 17 18 18 17 17 19 21 24 25 24 24 22 24 25 26 30 31 31 30 31 32
16 13 14 14 14 14 14 15 15 16 16 17 16 16 16 16 17 17 17 17 17 18 20 22 23 22 21 22 25 25 27 27 30 31 31 29 29 32
14 15 15 14 15 15 15 16 15 15 16 16 16 16 17 16 16 16 16 17 17 19 22 22 23 22 20 19 21 24 27 28 29 29 30 29 29 33
15 15 15 15 15 15 16 16 16 15 15 15 17 17 16 16 15 15 16 17 19 22 20 21 22 23 22 21 21 24 29 29 28 29 28 30 32 34
14 14 14 15 15 16 16 16 16 16 17 17 15 16 16 16 15 16 17 19 21 21 20 21 23 26 25 24 22 23 27 31 31 30 30 28 28 29
14 15 15 15 16 16 16 15 15 15 16 16 16 16 17 17 17 17 18 19 20 22 21 23 23 23 22 23 23 23 25 28 29 31 33 32 28 25
15 15 15 15 15 15 16 15 15 15 16 16 16 17 17 17 18 19 20 21 23 22 23 22 22 22 22 23 23 23 25 26 28 28 29 33 33 33

GFSNE_sfc_30mbdewp_021.txt.gz
Dewpoint
17 18 17 17 17 18 19 19 17 14 14 12 14 17 19 20 20 21 21 22 24 24 24 24 24 25 28 28 29 27 29 29 30 31 30 30 32 34
17 17 18 18 18 19 19 20 19 18 17 16 18 19 20 20 21 22 20 22 23 24 25 24 24 26 24 25 27 26 25 26 27 28 29 29 30 32
19 18 18 18 18 18 19 20 20 19 19 20 20 21 20 20 19 21 23 24 24 24 22 23 22 21 21 22 23 24 24 25 25 27 29 31 32 35
19 19 19 18 19 18 19 19 20 20 21 20 21 21 19 20 21 25 24 20 18 17 18 20 21 22 22 23 24 25 26 25 27 26 26 28 28 29
20 20 18 18 17 18 19 20 21 21 22 22 20 20 22 25 22 19 15 14 14 16 18 19 21 22 23 23 23 23 24 24 24 24 25 27 28 28
21 20 19 19 19 20 22 22 23 21 20 21 22 26 21 19 18 15 15 16 17 19 21 20 20 20 21 21 21 21 22 22 22 23 24 27 28 28
21 20 19 21 23 23 22 22 21 22 23 27 23 20 19 16 15 16 17 19 21 19 19 19 18 19 20 21 21 20 21 22 22 23 25 26 26 27
20 19 20 21 22 23 22 22 23 24 28 24 21 17 15 15 17 19 23 20 18 18 17 19 20 19 19 19 19 20 21 22 23 24 26 26 26 28
20 20 19 20 22 22 23 24 25 28 23 21 17 16 17 18 25 23 21 20 19 20 20 19 19 18 18 17 19 20 21 22 23 24 25 26 26 26
20 20 20 21 22 23 21 28 25 22 18 18 18 20 25 24 20 20 21 22 22 19 17 17 17 17 18 18 19 21 22 23 24 25 26 27 27 27
20 20 21 21 21 21 25 25 19 17 17 19 23 23 19 19 20 21 21 19 17 16 17 17 17 19 19 20 20 20 21 24 26 26 26 26 26 26
20 19 21 21 20 24 21 19 18 15 21 25 16 15 16 17 19 19 21 19 18 16 15 19 19 20 17 16 19 21 22 22 24 25 27 29 29 29
19 20 19 20 24 20 18 17 17 21 20 15 15 16 17 18 18 19 20 21 18 17 18 21 20 20 20 20 20 22 23 24 27 28 27 29 31 31
21 19 19 21 19 18 18 19 20 20 15 15 16 17 18 19 19 20 20 21 21 21 22 23 21 21 20 19 19 21 23 25 27 29 29 29 29 31
20 20 20 19 16 16 17 19 18 15 15 16 18 18 18 19 20 20 20 20 21 21 22 22 23 23 23 22 22 23 24 26 27 28 30 29 29 29
20 21 18 15 15 16 15 14 15 15 16 18 17 18 18 18 18 19 18 19 19 19 21 22 25 26 24 24 24 24 25 25 28 30 31 31 32 33
19 16 12 12 13 13 14 14 15 15 16 17 17 17 17 17 17 18 19 19 17 18 19 21 24 25 25 25 24 25 24 26 29 30 30 30 31 32
16 12 13 13 13 14 14 15 15 16 16 17 17 17 17 17 17 18 18 18 17 18 19 22 24 23 23 23 24 25 27 27 28 30 31 29 28 33
13 13 14 14 14 15 16 16 16 16 17 17 17 16 17 18 16 16 17 17 17 18 21 23 23 23 20 20 23 25 27 27 29 28 30 30 29 32
14 14 14 14 15 15 16 16 16 16 16 16 17 18 17 17 16 16 17 17 18 21 22 22 24 24 23 22 23 24 26 29 29 28 29 31 32 34
14 14 14 15 15 16 16 16 16 16 17 18 16 17 17 17 16 17 18 19 21 21 21 22 25 26 26 25 24 24 26 29 30 30 30 29 28 29
14 14 14 15 16 16 16 16 16 16 16 16 17 17 18 18 18 18 19 20 20 22 23 24 25 25 24 23 23 24 26 27 28 29 31 32 28 25
14 14 15 15 16 16 16 16 15 16 16 17 17 18 19 19 20 20 21 22 23 24 24 24 24 24 23 23 23 23 25 26 26 27 30 33 33 33

GFSNE_sfc_30mbdewp_024.txt.gz
Dewpoint
17 18 18 17 17 17 17 17 16 13 12 11 11 13 15 17 18 19 19 21 22 24 25 25 26 26 26 26 29 28 31 29 29 31 31 32 33 32
16 18 17 17 17 17 17 17 17 16 14 13 13 15 17 17 18 19 19 21 22 23 24 23 24 24 24 24 25 25 26 27 28 29 30 30 31 29
18 18 18 18 17 16 15 16 16 16 15 17 16 17 18 18 18 19 20 21 21 19 19 20 21 23 24 25 25 26 28 29 30 30 30 29 30 31
18 19 18 16 16 15 15 15 16 18 18 18 19 19 18 19 21 21 19 16 14 15 18 20 22 23 23 24 25 26 27 27 28 29 29 29 30 30
19 19 18 16 15 16 16 18 19 19 20 21 21 20 21 24 22 19 16 14 15 16 18 19 21 22 24 24 24 25 25 25 26 27 26 27 27 28
20 20 19 16 17 18 19 20 18 19 19 19 21 23 27 21 19 15 14 16 17 18 20 20 21 21 22 22 22 23 23 23 24 25 25 26 26 27
19 19 17 18 22 23 22 20 20 20 23 25 24 26 21 17 13 15 17 18 22 20 19 20 19 20 21 22 21 21 21 22 23 25 27 27 27 28
17 17 17 18 18 21 21 22 23 26 27 27 26 19 15 13 16 18 21 24 19 20 18 20 21 20 20 20 20 21 22 23 24 24 25 26 28 28
18 17 17 17 19 19 21 22 23 26 27 22 19 15 15 17 23 25 23 20 20 20 21 21 19 18 19 19 20 21 23 24 25 27 27 27 27 27
18 18 18 18 18 21 21 25 27 22 17 17 16 17 21 25 26 21 21 22 22 21 19 19 19 19 20 21 21 22 23 24 26 29 30 30 28 28
17 17 18 18 20 21 24 28 19 15 15 16 20 24 24 20 20 21 22 21 19 18 19 19 19 21 21 22 23 21 22 23 25 26 29 32 33 32
16 17 17 19 19 23 23 18 16 14 17 24 21 16 16 16 19 20 22 21 20 18 17 20 21 20 18 18 22 23 24 24 26 26 28 29 31 33
17 16 17 17 21 20 20 17 16 20 22 18 15 15 16 18 19 20 22 23 20 20 20 22 21 20 20 21 21 23 25 26 27 27 28 29 30 32
17 17 17 20 20 19 18 18 21 21 17 15 16 17 19 21 22 23 22 23 23 22 23 23 21 21 21 20 20 22 25 27 29 29 30 31 32 30
20 19 20 19 18 15 15 19 19 15 15 16 18 20 20 21 22 22 23 23 23 23 24 24 24 24 23 22 22 23 24 26 28 30 31 32 31 32
19 20 17 16 13 14 14 14 15 15 17 18 19 20 20 21 21 21 21 21 21 21 23 24 25 26 24 25 24 24 25 26 29 30 30 31 31 33
19 15 12 10 12 13 14 15 15 16 17 18 19 19 19 19 19 20 21 21 20 19 21 23 25 26 27 27 25 26 26 27 28 30 30 30 30 32
16 12 11 12 13 14 15 16 17 18 18 19 19 19 19 19 19 20 20 20 20 20 20 22 24 25 24 24 25 26 26 27 29 29 31 30 29 31
12 13 13 13 14 15 17 18 18 18 19 20 20 19 20 20 19 19 20 20 20 21 22 24 25 25 23 20 22 25 26 28 29 28 29 30 29 31
13 13 13 13 15 16 18 19 19 19 19 19 20 20 20 20 19 19 20 20 21 22 23 23 24 26 24 23 24 25 27 30 30 28 28 31 31 31
13 13 13 14 16 17 18 18 18 18 20 20 19 20 20 21 20 20 20 21 22 23 23 23 25 27 28 27 25 24 26 28 30 30 30 29 28 28
13 13 14 15 17 18 19 18 18 18 19 19 19 20 20 21 21 21 21 22 23 24 24 26 26 27 26 25 24 24 26 27 28 29 31 32 29 25
14 14 14 16 18 18 18 18 18 18 18 19 19 20 21 21 22 23 24 24 25 26 24 23 25 26 25 25 24 25 26 26 26 27 30 34 34 34

GFSNE_sfc_30mbdewp_027.txt.gz
Dewpoint
19 20 20 19 19 19 19 19 18 16 16 14 13 15 16 17 18 19 19 20 22 24 24 25 25 25 26 26 27 27 28 29 29 31 32 32 31 31
18 18 19 19 19 19 19 18 18 17 16 16 16 16 17 18 19 20 20 21 22 22 23 24 23 23 24 25 26 27 28 30 31 31 32 32 33 33
18 19 19 19 18 17 17 17 17 17 16 17 19 20 20 20 20 20 22 22 21 21 20 20 21 23 25 26 26 27 28 29 29 30 31 32 33 32
18 19 19 17 18 17 17 17 17 17 18 18 20 20 20 20 21 23 23 22 18 17 18 20 22 23 24 25 25 26 27 27 28 30 32 31 31 32
19 19 19 18 18 17 17 18 20 20 20 20 19 20 21 23 25 26 20 19 16 17 18 20 22 23 24 24 24 25 25 25 25 26 27 27 28 29
19 19 19 19 17 18 20 21 20 20 20 20 21 23 24 26 23 18 16 17 18 19 20 23 21 22 22 22 23 24 24 25 25 25 26 26 28 29
19 18 18 18 19 21 21 22 22 22 23 24 24 24 25 20 17 16 17 20 20 23 21 20 21 20 21 22 22 22 22 24 25 26 27 28 28 29
18 17 17 18 17 19 21 21 21 22 25 25 27 25 20 19 17 19 21 21 22 21 20 20 21 21 22 21 21 22 23 24 25 26 27 28 29 29
17 17 17 16 18 19 19 20 22 23 24 25 21 19 18 18 21 22 24 24 20 21 21 22 23 20 21 20 21 23 24 25 27 28 28 28 30 31
17 17 17 17 18 19 20 23 25 26 24 19 18 18 19 21 26 29 24 22 22 21 21 21 21 19 20 22 22 23 24 26 26 26 27 28 29 31
16 16 17 18 18 20 21 24 25 19 18 17 18 21 23 22 20 20 21 22 20 19 20 20 20 21 21 21 22 22 22 24 25 27 28 29 29 30
16 17 17 17 19 20 21 21 19 18 17 21 23 21 18 17 19 20 22 23 22 19 19 20 21 22 19 18 21 22 23 24 25 26 28 29 30 32
19 17 17 18 20 21 21 20 18 19 22 22 18 17 18 19 20 22 22 24 22 20 20 22 21 21 20 20 20 21 22 24 26 26 27 29 30 31
18 18 19 20 20 20 19 18 19 21 19 17 17 18 19 21 22 22 22 23 24 24 24 24 22 21 20 19 18 20 21 23 25 27 28 29 31 33
19 20 20 19 18 16 14 17 18 16 16 17 19 20 21 22 22 23 23 23 23 23 23 23 24 24 24 21 20 22 22 23 26 27 29 32 32 31
20 21 19 16 13 13 14 15 16 16 18 20 20 21 21 21 21 21 22 21 22 21 22 23 24 26 24 24 24 23 24 23 26 28 31 31 30 30
19 18 15 11 13 13 14 15 16 17 20 21 21 21 20 20 20 20 21 22 21 19 20 22 23 24 25 26 25 25 25 26 27 27 30 29 29 30
18 14 12 14 14 14 15 16 18 19 20 22 21 20 20 20 20 21 21 21 20 20 21 22 23 25 24 24 26 26 26 26 27 27 29 29 28 28
13 13 14 15 15 16 17 18 19 20 21 21 21 20 20 21 20 19 20 20 20 20 21 22 25 24 22 20 22 24 26 26 26 28 28 28 28 29
14 15 15 15 15 17 18 19 20 19 19 20 20 21 20 20 20 19 20 20 21 21 23 23 23 25 24 23 24 25 27 27 28 28 28 28 30 31
14 14 15 15 16 18 19 20 20 19 20 21 19 20 21 21 20 20 21 21 22 23 22 23 25 26 26 28 25 23 24 26 29 30 30 29 29 29
14 15 15 16 17 19 20 20 19 19 19 19 19 20 21 21 21 21 22 22 23 23 25 26 25 25 28 26 24 25 26 28 29 29 30 33 30 26
15 15 15 17 18 19 20 19 18 18 19 19 19 20 21 21 22 22 23 24 25 27 24 25 25 26 25 26 26 26 27 27 27 27 29 33 34 34

GFSNE_sfc_30mbdewp_030.txt.gz
Dewpoint
19 20 21 21 20 20 20 20 19 17 16 17 16 18 18 18 20 21 21 22 22 24 26 25 25 26 26 26 26 27 28 30 31 32 33 33 33 34
19 18 20 20 20 20 20 20 19 18 16 17 17 18 19 20 21 21 21 22 23 24 24 24 24 24 25 25 27 28 30 30 30 32 33 34 34 35
19 19 20 20 20 20 19 18 18 18 17 17 18 20 21 21 21 22 22 22 24 24 23 23 22 23 25 26 26 27 28 29 30 31 33 33 34 33
19 19 20 20 19 20 18 18 19 19 19 19 21 20 21 21 21 22 23 27 24 20 22 20 22 23 24 25 26 27 27 27 28 29 31 30 31 31
20 20 20 20 19 20 18 19 21 21 22 21 21 22 21 22 24 25 28 22 19 18 19 21 21 23 26 24 25 25 25 26 27 27 27 28 29 30
21 21 20 19 19 19 20 21 21 22 22 22 22 23 24 25 26 23 19 19 18 20 20 22 25 24 23 23 23 24 25 25 26 26 26 27 28 28
19 19 19 20 20 20 20 21 22 23 22 23 23 22 23 26 20 21 18 19 20 21 22 23 21 21 21 22 22 23 24 25 26 26 27 28 28 30
18 19 18 20 19 19 20 21 21 22 23 22 25 25 21 20 19 19 19 19 20 23 21 20 21 20 21 23 23 23 24 25 26 27 28 28 29 31
19 18 18 17 19 19 21 20 21 22 23 23 22 21 19 19 20 21 22 24 24 23 21 20 21 21 22 21 22 23 24 25 26 27 28 28 30 30
18 17 17 17 18 20 20 22 23 25 26 24 20 19 20 21 24 28 26 23 22 22 21 20 20 20 20 21 22 23 24 25 26 25 26 27 28 29
17 17 19 19 20 19 21 21 22 23 21 20 20 21 23 23 21 20 20 21 19 19 21 21 20 21 21 20 21 22 22 23 24 25 26 27 28 29
19 20 20 19 20 21 21 21 22 20 19 20 23 23 20 19 19 20 20 21 21 19 19 20 21 21 17 17 19 20 21 22 23 24 25 26 28 29
21 20 19 20 21 21 21 20 19 20 20 22 19 18 18 19 20 21 22 24 22 20 20 21 21 21 20 19 18 19 20 21 22 23 24 26 28 29
19 19 20 22 21 20 20 18 18 20 18 16 17 18 19 20 21 22 22 23 23 23 23 25 22 22 20 19 17 19 20 22 23 24 25 26 28 29
19 20 21 20 20 18 16 16 17 16 16 17 20 21 20 21 22 22 22 22 23 23 23 23 23 23 22 20 20 21 21 22 24 25 26 26 27 29
21 22 20 19 15 14 14 15 16 17 18 19 19 21 21 21 20 20 21 21 21 20 21 22 23 23 22 23 23 22 23 23 24 26 26 27 28 29
20 19 17 14 15 15 15 16 16 17 18 19 20 21 20 19 19 20 20 21 20 19 19 20 22 23 24 23 22 22 23 24 25 26 27 27 27 28
18 14 13 15 15 15 15 16 17 18 19 20 20 20 20 19 19 20 21 20 19 19 20 20 21 22 22 23 25 25 26 26 26 26 26 26 26 27
13 14 15 16 16 16 16 17 18 18 20 20 20 19 19 19 19 18 19 19 19 19 19 21 23 23 20 19 21 24 27 27 26 26 27 27 27 28
15 15 15 15 15 16 17 18 19 19 19 19 19 20 20 19 18 18 19 19 20 21 22 22 22 24 23 22 23 24 27 27 28 27 27 28 29 29
15 15 15 16 16 17 18 19 19 19 20 20 18 19 19 19 18 19 19 20 22 22 21 22 24 28 27 27 24 23 24 27 28 29 29 28 27 29
15 15 16 16 16 17 18 18 18 18 17 18 18 19 19 19 19 20 20 20 21 23 24 26 27 27 27 25 24 24 25 26 28 28 29 30 29 26
15 15 15 16 17 17 18 18 17 17 18 18 18 18 19 19 20 21 21 22 23 24 27 25 25 25 24 26 26 25 26 25 26 27 28 31 34 34

GFSNE_sfc_30mbdewp_033.txt.gz
Dewpoint
20 21 21 22 21 21 21 21 18 16 16 17 17 18 19 19 21 23 22 22 24 24 25 26 27 27 27 28 27 28 29 31 33 33 34 34 34 35
20 19 19 21 21 21 20 20 20 18 16 17 17 19 19 21 22 23 22 24 23 24 26 27 25 26 26 26 27 27 29 30 31 33 34 34 34 34
19 19 20 21 20 20 20 19 18 18 17 18 19 21 22 21 22 22 22 21 23 25 25 25 24 25 25 26 26 27 27 30 30 32 32 34 34 34
18 19 20 20 20 20 20 19 19 19 20 19 21 22 22 22 22 22 23 24 25 26 23 23 22 23 24 25 27 28 27 27 29 30 31 31 31 31
19 20 20 20 20 20 20 19 20 21 21 21 21 23 22 24 24 25 26 27 22 21 20 20 22 24 26 26 26 25 26 26 26 27 27 28 29 30
21 21 21 20 19 20 19 20 20 21 22 22 22 23 24 23 24 26 20 21 20 19 20 21 23 25 25 24 24 24 25 25 26 27 28 29 30 31
20 19 19 21 22 21 21 21 21 22 22 22 23 23 22 23 21 21 20 20 20 20 20 22 23 23 22 22 22 23 25 26 26 27 28 29 30 32
20 20 19 21 20 20 21 20 21 21 22 22 24 22 22 21 20 20 20 20 20 22 23 23 22 21 21 22 23 24 24 25 26 27 28 28 29 30
19 18 18 17 20 19 21 21 21 22 22 22 23 23 22 21 20 21 23 24 24 25 22 21 21 21 21 21 22 23 24 25 26 26 26 28 29 30
17 17 18 19 19 21 21 21 23 23 23 25 24 22 21 21 25 27 24 22 21 21 21 19 20 20 21 21 22 22 24 25 25 25 25 26 26 27
19 20 21 20 21 21 22 22 22 22 24 22 21 22 24 24 22 21 21 20 18 18 19 20 20 20 21 20 20 22 22 22 22 24 25 26 26 27
20 21 22 20 20 21 22 22 21 20 20 21 22 22 20 19 20 20 20 20 19 19 18 20 20 20 17 18 18 20 20 21 22 23 24 25 26 26
21 20 20 21 22 22 21 20 19 19 20 18 17 17 18 19 20 21 21 22 21 19 20 21 21 20 20 19 19 20 20 20 21 22 23 24 26 27
19 19 20 23 22 21 19 18 18 19 16 16 17 18 19 21 21 22 22 23 23 22 22 23 21 21 19 18 17 18 19 21 22 23 24 25 26 27
20 20 22 22 20 17 17 17 17 16 16 17 19 19 20 21 22 22 22 21 21 21 22 22 22 22 21 19 18 19 20 21 22 23 25 25 25 26
21 21 21 17 16 16 16 16 16 16 18 18 19 20 20 21 20 20 20 19 19 18 20 21 22 22 21 21 21 20 21 21 22 23 25 26 26 27
21 17 14 14 15 15 15 16 16 17 18 19 19 19 19 19 19 19 19 19 19 18 18 19 21 22 22 22 21 21 21 22 23 24 25 26 26 26
15 13 14 15 16 15 15 15 16 18 18 19 19 19 18 18 18 19 20 19 17 17 18 19 20 20 20 21 24 23 24 24 25 26 27 26 25 26
14 14 15 15 16 16 16 16 17 18 19 19 18 18 18 18 19 17 17 18 18 18 18 19 22 22 19 17 20 24 26 26 26 25 25 26 26 27
15 15 15 15 16 16 16 17 17 17 18 18 18 19 18 18 17 17 18 18 18 19 21 21 22 23 22 22 24 24 26 26 27 26 27 27 29 29
15 15 15 16 16 16 16 17 17 17 19 18 17 17 18 18 17 18 18 19 21 20 19 20 22 25 28 27 24 22 23 26 27 28 28 27 26 27
14 15 15 16 16 16 17 17 17 16 17 17 17 18 18 19 18 18 19 19 20 21 22 23 25 26 26 24 22 23 24 25 26 27 28 30 28 25
15 15 16 16 16 17 17 17 16 16 17 17 17 18 19 19 20 20 21 21 22 23 24 23 24 25 24 24 24 24 24 24 25 27 28 30 32 33

GFSNE_sfc_30mbdewp_036.txt.gz
Dewpoint
21 21 21 22 22 21 21 21 18 16 16 17 16 18 19 20 22 24 23 25 24 25 25 26 27 28 29 28 28 29 30 31 31 32 33 34 35 35
21 20 20 21 21 21 21 21 21 19 16 18 17 19 20 22 23 22 23 24 24 25 26 27 27 27 27 27 29 28 29 31 32 32 33 34 34 34
20 19 19 21 20 21 21 20 19 19 17 18 19 21 22 22 22 23 23 23 23 26 25 26 26 26 26 26 26 27 27 28 30 33 32 32 34 34
18 19 20 21 20 20 20 19 19 19 19 18 20 21 22 23 23 23 24 24 25 26 26 25 25 24 25 26 27 27 28 29 28 28 28 29 30 29
19 20 21 21 20 21 20 20 20 20 21 21 21 22 23 23 24 24 24 25 26 24 23 22 23 24 26 27 27 27 26 26 27 27 27 28 27 31
26 26 24 22 20 20 20 20 20 20 21 21 22 22 23 24 24 24 22 21 21 21 21 22 24 25 25 25 26 25 25 26 26 27 27 28 29 30
25 21 20 21 24 23 21 21 22 21 21 21 21 22 23 22 21 21 21 20 20 21 21 22 23 24 24 24 23 23 24 26 27 27 28 29 30 30
19 20 20 21 20 21 21 21 21 21 21 22 22 23 22 22 22 21 21 20 20 22 23 23 22 21 22 22 23 24 25 25 26 26 27 28 29 30
18 17 17 18 21 19 21 22 22 23 23 23 22 22 23 23 23 21 21 23 23 23 22 20 20 20 21 21 22 23 24 25 26 26 26 26 28 28
18 19 19 21 21 22 22 22 23 23 23 23 23 24 24 24 26 28 25 22 22 21 20 18 19 19 20 21 22 23 24 25 25 26 25 25 26 27
20 20 22 22 22 22 22 22 23 23 24 22 22 22 24 24 22 21 21 21 18 18 19 19 19 19 19 19 20 22 22 23 23 23 24 25 26 26
19 21 22 21 21 21 23 23 21 20 20 21 21 19 18 18 20 20 20 19 19 17 18 18 19 20 17 18 19 20 19 21 22 23 24 25 25 25
20 19 20 21 22 23 22 20 19 20 19 16 16 16 18 19 20 21 22 22 20 19 19 21 21 20 19 18 19 19 20 20 20 21 22 23 25 26
20 20 20 23 23 21 19 19 19 19 16 16 17 18 19 20 20 21 22 22 23 22 22 22 20 19 18 17 16 17 19 20 21 21 22 23 25 26
21 22 24 23 20 17 17 18 18 16 16 17 18 19 19 20 21 21 21 21 21 21 22 22 21 21 20 18 17 18 19 19 21 21 22 23 24 25
22 23 19 16 16 16 16 16 16 16 17 18 18 19 19 19 19 19 19 19 19 18 19 20 21 21 19 20 20 19 19 20 21 22 23 23 24 25
21 15 14 14 15 15 15 15 16 16 18 18 18 18 18 18 18 18 18 18 17 17 17 18 19 20 21 21 19 19 20 20 21 22 23 24 25 26
15 14 14 15 15 15 15 15 16 17 17 18 18 17 17 17 17 18 19 18 17 16 17 18 18 19 19 20 23 21 21 22 23 25 27 25 25 26
14 14 15 15 15 16 16 16 16 17 18 17 17 17 17 17 18 16 17 17 17 17 17 18 19 20 18 16 19 23 25 27 26 25 25 24 24 25
14 15 15 15 16 16 16 16 16 16 16 16 17 18 17 17 17 16 17 17 17 18 20 20 20 21 20 20 22 24 26 26 26 25 25 26 27 28
14 14 15 15 16 16 16 16 16 16 17 18 16 17 17 17 17 17 18 19 21 20 19 20 21 24 26 26 23 21 22 24 26 28 27 26 25 25
14 15 15 16 16 16 16 16 16 15 15 16 16 17 18 18 18 18 19 20 20 21 22 23 24 24 25 24 22 22 23 24 26 27 29 30 28 25
15 16 16 16 16 16 16 16 16 16 16 16 17 17 18 19 20 20 21 22 23 24 23 22 22 23 23 23 23 23 24 25 26 27 27 28 29 30

GFSNE_sfc_30mbdewp_039.txt.gz
Dewpoint
21 22 21 22 22 21 21 20 17 14 15 16 16 19 19 20 22 24 23 24 25 26 27 28 29 29 29 29 29 30 29 30 31 32 32 34 36 36
25 21 21 22 22 22 22 21 20 18 16 18 17 18 19 21 23 24 24 25 24 26 27 28 27 28 28 28 28 29 30 29 29 32 34 34 35 35
28 26 20 21 21 21 21 21 21 20 18 18 19 19 20 21 22 23 24 24 24 25 25 27 27 28 28 27 28 28 28 29 30 31 33 33 35 34
28 26 21 21 21 21 21 20 20 20 19 18 19 20 21 22 23 23 23 24 24 25 26 27 27 26 26 27 27 27 28 29 30 31 31 30 31 30
23 20 21 21 21 22 22 21 21 20 20 20 20 22 22 23 23 24 24 24 25 24 23 23 24 25 26 27 27 27 27 27 27 27 27 27 28 28
30 30 30 30 28 24 21 20 20 20 20 21 21 22 22 23 24 23 21 21 21 21 22 23 25 25 26 25 26 26 27 27 27 27 28 28 27 28
32 31 28 25 27 25 23 22 22 21 21 21 21 21 22 23 22 22 22 21 22 22 21 22 23 23 24 25 24 24 24 26 27 28 28 28 30 30
28 23 19 20 20 23 24 24 24 22 21 21 21 21 23 22 22 22 21 22 20 22 22 22 22 21 21 21 23 24 26 26 27 27 26 27 29 29
18 17 18 19 22 20 22 23 23 24 24 23 23 22 21 23 23 23 23 23 22 23 22 20 21 20 20 20 22 23 24 26 26 26 26 27 28 28
18 19 19 21 22 23 23 23 23 23 24 24 24 24 24 24 25 27 27 24 22 21 21 18 18 18 19 20 22 23 24 25 26 26 26 26 26 27
19 20 22 22 23 22 22 22 23 23 23 22 22 23 24 23 22 20 20 20 18 18 19 18 18 19 19 19 20 22 23 23 24 24 24 25 25 25
19 20 22 21 21 22 23 23 19 19 19 21 20 17 17 17 20 20 20 19 19 17 18 17 18 20 17 18 19 20 19 21 22 23 25 25 26 25
20 20 20 22 24 24 23 19 19 20 20 16 16 16 18 19 20 21 21 21 19 18 19 21 21 20 19 18 19 19 20 19 20 20 21 23 24 25
20 20 20 24 23 22 19 18 19 20 16 16 17 18 19 19 20 20 21 21 22 21 22 22 19 19 17 16 15 16 18 19 20 21 21 22 24 25
21 23 25 21 19 17 17 18 18 16 16 17 18 19 19 19 20 20 20 20 20 20 21 21 21 20 19 17 16 17 18 19 20 20 21 22 22 23
24 19 17 16 16 16 16 16 16 16 17 18 18 18 19 18 18 19 18 18 18 17 18 19 20 20 18 18 18 17 18 18 20 21 22 22 23 24
18 14 13 14 14 15 15 15 16 16 17 18 18 17 17 18 17 18 17 17 17 16 16 17 19 20 20 20 18 18 18 19 20 21 22 22 23 24
15 13 13 14 15 15 15 15 16 17 17 17 17 17 16 16 17 18 19 17 16 16 16 17 18 18 18 19 22 20 20 21 22 23 24 24 24 26
13 13 14 14 15 15 16 16 16 16 16 16 16 16 16 17 18 16 17 17 16 16 17 18 19 20 17 15 17 20 24 26 26 26 25 24 24 24
13 14 14 15 15 15 16 15 15 15 15 15 16 17 17 16 16 16 17 17 17 18 20 20 20 22 20 20 21 22 25 26 26 25 25 25 26 27
14 14 15 15 15 16 16 15 15 15 16 17 15 15 16 17 17 18 18 19 20 20 19 20 22 24 25 25 22 20 22 24 26 27 27 26 25 25
14 15 15 16 16 16 15 15 14 15 15 15 15 16 17 18 18 19 19 19 20 20 21 23 25 24 24 23 21 22 22 23 25 26 28 29 28 24
15 15 16 16 16 15 15 15 15 15 15 15 16 17 18 19 20 20 20 21 21 23 24 23 24 24 22 23 23 23 23 24 24 25 26 28 29 30

GFSNE_sfc_30mbdewp_042.txt.gz
Dewpoint
24 23 24 26 22 22 21 19 15 12 14 16 16 19 19 20 21 25 25 26 26 26 26 28 29 30 30 30 30 30 31 31 30 31 33 34 33 36
27 24 24 24 25 25 24 22 20 17 15 18 17 18 18 19 21 25 24 26 26 26 26 27 27 28 29 29 29 29 30 30 31 32 32 33 35 36
28 28 27 27 26 25 24 24 22 21 19 20 19 19 19 20 21 22 24 24 24 25 25 26 27 28 29 29 28 28 28 28 30 32 32 33 34 36
30 30 30 31 28 27 26 25 24 23 22 18 19 19 20 21 22 22 23 23 24 24 25 27 27 27 27 28 28 28 28 30 30 31 32 33 33 34
31 28 27 28 29 31 31 31 29 22 21 20 19 21 22 23 23 23 23 24 24 25 24 24 25 26 27 28 28 27 27 28 28 28 28 28 28 29
32 33 33 33 32 32 31 30 23 21 21 21 21 22 22 22 23 23 23 22 22 22 23 24 25 25 25 25 26 26 27 28 28 28 28 28 28 28
33 32 32 32 32 32 29 24 23 22 22 22 21 21 21 22 23 23 22 22 22 23 22 22 22 23 23 24 24 24 25 26 27 28 28 29 30 30
30 30 30 29 28 27 25 24 24 24 23 22 21 21 22 24 22 22 22 22 21 22 22 21 23 21 21 22 23 24 25 26 27 27 27 28 29 30
26 19 20 21 25 22 23 24 24 25 24 24 24 23 22 23 23 22 23 23 23 23 23 20 21 20 21 20 22 23 24 26 27 27 27 27 27 27
19 19 20 22 22 23 23 23 23 24 24 24 24 24 24 24 24 25 25 23 21 21 21 19 19 18 19 20 21 23 24 25 26 27 27 26 26 27
20 20 23 22 22 22 22 22 24 23 22 22 22 24 24 22 21 21 20 20 18 17 19 18 18 18 19 19 19 22 23 23 23 24 25 25 26 27
20 20 22 20 22 23 24 24 19 19 19 20 19 17 17 17 21 20 20 19 18 17 18 18 18 19 17 18 19 19 19 20 21 23 24 25 26 26
20 19 20 23 24 25 23 19 19 20 20 16 15 16 18 19 20 20 21 20 19 18 18 20 20 19 19 17 18 18 19 18 19 19 21 22 24 25
20 20 21 25 23 22 19 19 19 20 16 16 17 18 18 19 19 20 20 21 21 21 21 21 19 18 17 16 15 16 17 19 20 20 21 22 23 25
22 25 22 20 18 17 17 18 18 16 16 17 18 18 19 19 19 19 19 19 19 20 21 21 20 19 19 16 16 16 18 18 19 19 20 21 21 22
23 17 17 15 16 15 15 15 16 16 18 18 17 18 19 18 18 18 18 17 17 16 18 19 20 20 17 18 18 16 17 17 19 20 21 21 22 23
18 13 13 13 14 14 14 15 16 16 17 17 17 17 17 17 17 17 17 17 16 16 16 17 19 20 20 19 17 17 18 18 19 20 21 21 22 23
13 12 12 13 14 14 15 15 16 16 16 16 16 15 15 15 15 17 18 17 16 16 16 17 18 18 18 19 22 20 20 20 21 22 24 24 24 25
12 13 13 14 14 15 15 16 15 16 16 15 14 14 15 15 17 17 16 17 17 17 17 18 20 20 17 15 18 21 23 25 25 24 24 24 24 24
13 14 14 15 15 15 15 15 15 15 14 14 14 15 16 15 16 17 18 18 17 18 20 20 20 21 20 20 22 23 24 25 25 25 25 25 26 26
13 14 15 15 15 16 15 15 15 14 15 17 14 14 15 16 16 18 19 20 22 21 19 20 21 23 25 26 22 20 22 23 27 27 26 25 24 24
14 14 15 16 16 15 15 15 14 14 14 14 14 15 15 16 17 19 19 20 20 21 21 21 23 25 25 24 22 22 22 23 24 26 27 28 27 23
14 15 15 15 16 15 15 14 14 15 15 15 15 15 17 17 19 20 21 22 21 21 22 24 23 24 24 25 25 24 23 23 24 24 25 27 28 29

GFSNE_sfc_30mbdewp_045.txt.gz
Dewpoint
33 29 25 27 28 29 28 25 23 20 16 17 18 20 20 21 21 22 23 25 27 28 27 28 28 29 30 30 31 31 31 32 32 32 32 33 34 37
31 27 27 27 27 28 27 26 24 19 15 19 19 21 21 20 22 24 24 26 26 27 27 27 27 28 29 29 29 30 30 31 31 33 34 33 35 36
28 28 28 30 28 28 29 29 29 29 28 27 26 27 27 25 23 23 23 23 24 26 26 26 27 28 28 28 29 29 29 29 29 30 31 33 35 35
31 30 30 31 31 32 31 29 29 30 29 28 28 25 24 24 23 23 23 23 23 24 25 26 26 27 27 28 28 29 29 29 31 31 32 33 34 34
33 32 31 30 30 31 32 32 31 32 30 28 25 25 24 23 23 23 23 24 24 24 24 24 25 27 28 28 28 28 28 28 28 28 28 28 29 30
33 33 33 33 33 32 32 31 32 30 28 27 26 24 23 23 23 23 22 22 21 21 23 24 26 26 25 25 26 26 27 27 28 29 29 28 29 30
33 33 32 32 32 32 31 31 30 29 27 25 24 23 23 22 22 22 22 20 22 23 22 22 22 22 22 24 24 24 25 27 28 28 28 29 30 30
31 31 31 32 32 32 32 32 30 27 26 25 24 23 22 23 22 21 21 21 20 21 21 21 22 21 21 21 22 24 26 26 27 27 27 28 29 30
29 28 28 29 30 28 26 24 25 25 25 25 24 23 22 22 24 24 23 23 22 22 21 20 20 19 20 20 22 23 24 25 26 27 27 27 27 28
24 25 25 24 24 24 23 25 24 24 24 25 24 23 22 23 25 26 24 22 20 20 20 19 19 18 19 19 21 22 24 25 26 26 26 26 27 28
23 24 24 22 22 22 23 24 25 24 21 22 22 24 24 23 21 21 21 20 19 17 18 18 18 18 19 19 19 21 22 23 23 23 24 25 26 26
21 20 21 21 23 24 26 26 21 19 19 22 20 18 17 17 21 20 20 20 19 18 19 18 19 19 17 17 19 19 19 20 21 23 24 24 25 26
19 19 20 23 24 25 23 20 19 19 20 17 15 15 18 18 19 20 20 21 19 19 19 21 20 19 19 18 18 19 19 20 20 20 21 22 23 25
20 21 23 25 23 21 19 19 20 20 16 15 17 18 19 20 20 21 21 21 21 22 22 22 19 19 18 17 17 18 19 21 22 22 23 23 24 25
23 23 22 20 17 16 17 18 18 15 16 17 18 19 19 20 21 20 21 21 21 21 22 22 22 21 20 18 18 18 19 20 22 22 23 23 23 23
21 17 16 15 16 15 15 15 16 16 18 18 18 18 19 19 19 20 19 19 19 19 21 22 21 21 19 19 19 18 19 19 21 22 23 23 23 24
19 12 11 12 13 13 15 16 16 16 18 17 17 17 17 18 18 19 19 19 18 19 19 21 21 21 21 21 19 20 20 20 22 22 23 22 23 24
12 11 12 13 14 15 15 16 16 17 17 17 17 16 17 17 18 19 20 20 19 19 19 20 21 21 20 21 22 21 22 22 24 25 25 24 24 25
12 13 14 15 15 16 16 16 17 17 17 16 16 16 16 17 18 18 19 20 19 20 21 21 21 22 19 17 19 21 24 26 26 24 25 25 24 25
14 14 15 15 16 16 17 17 16 16 16 16 16 16 16 17 16 17 19 19 20 21 22 22 22 22 21 20 22 24 25 26 26 25 25 26 27 27
13 14 15 16 16 17 17 16 16 16 17 18 16 15 15 16 16 18 19 21 22 22 21 21 23 24 25 25 23 22 23 25 27 27 27 26 25 25
13 14 15 16 16 16 16 16 16 16 16 16 16 17 16 17 17 18 19 21 22 22 22 23 24 25 26 24 23 23 23 24 25 26 27 29 27 23
14 14 15 15 16 15 16 16 16 16 16 16 17 18 18 17 18 19 20 21 22 23 23 23 25 24 24 25 23 24 23 23 24 24 24 26 28 29

GFSNE_sfc_30mbdewp_048.txt.gz
Dewpoint
49 45 38 30 29 28 30 33 33 30 30 23 23 23 23 22 22 23 22 23 27 29 29 29 30 30 30 31 31 32 32 33 33 33 33 34 34 35
46 39 31 29 30 31 31 28 29 29 27 25 25 28 27 28 32 34 30 29 28 27 28 28 29 29 29 30 30 30 31 32 32 32 33 32 34 36
36 33 32 32 32 32 31 31 30 30 29 30 30 31 32 32 32 31 30 27 24 24 25 27 27 28 29 29 29 29 30 30 30 30 31 31 35 36
32 32 31 32 32 33 33 32 32 32 32 32 31 30 30 32 30 29 27 24 23 22 25 27 28 27 28 28 29 29 29 29 29 30 33 33 34 34
33 32 33 33 33 33 33 32 32 32 31 31 30 31 29 28 28 26 24 22 23 23 23 22 23 25 27 28 29 29 28 29 29 29 29 29 29 30
33 33 33 33 33 32 32 32 32 31 31 30 28 28 28 27 26 23 21 21 20 19 20 22 24 25 26 27 27 27 28 28 28 29 29 29 29 29
34 34 33 34 34 33 32 32 32 31 30 29 27 25 24 22 20 20 20 19 20 20 19 21 21 21 22 23 23 24 25 25 27 28 29 29 29 30
31 31 32 33 33 34 35 33 31 28 28 26 26 22 20 20 20 20 20 19 19 21 20 21 21 20 20 21 21 23 25 26 27 27 28 28 28 28
31 31 30 29 29 28 29 27 27 27 27 25 22 20 20 20 23 23 22 21 21 21 20 20 20 20 20 19 21 22 24 25 26 27 28 28 28 28
28 28 26 25 24 24 23 24 24 23 22 23 23 22 21 21 21 24 25 22 21 20 20 20 19 19 19 20 21 22 23 24 25 26 27 27 26 27
24 25 24 22 21 23 22 24 23 23 23 22 22 22 24 24 23 21 21 21 21 20 20 20 20 20 21 22 22 22 23 23 24 25 25 26 26 27
20 18 20 21 24 25 24 25 22 19 17 20 19 17 17 16 20 21 21 22 21 20 20 20 21 21 20 19 21 21 22 22 23 23 24 25 26 26
17 17 19 24 25 26 24 21 19 19 18 19 15 14 17 19 20 20 21 22 21 21 21 24 22 22 22 20 20 22 23 23 22 23 23 24 24 25
19 20 22 24 23 21 19 18 20 21 16 13 16 18 20 22 24 24 24 23 24 24 25 25 22 21 21 20 19 21 23 24 25 25 26 26 26 26
21 22 22 19 16 15 15 18 19 15 15 17 19 21 22 23 24 24 25 25 24 25 25 25 24 22 22 20 20 20 21 22 24 25 26 26 26 26
21 19 15 14 15 15 14 14 16 16 18 19 20 20 21 22 22 23 23 23 23 23 26 26 26 24 21 21 21 20 21 21 23 24 25 26 26 26
21 11 8 9 11 12 15 16 17 17 18 20 20 20 20 21 22 23 23 22 22 22 23 25 26 26 26 24 21 21 21 22 24 25 25 25 25 26
11 8 9 11 14 15 16 17 18 19 19 20 20 20 20 20 21 22 22 22 22 21 22 22 23 23 23 23 24 23 24 24 25 26 27 27 26 27
10 11 13 15 17 17 18 19 20 20 20 20 20 19 19 19 20 20 21 22 21 21 22 23 24 24 21 19 21 23 23 24 25 26 26 26 26 27
13 14 16 17 17 18 19 20 20 20 20 20 20 19 20 19 19 20 21 22 22 22 23 24 24 24 23 22 23 24 25 25 26 26 26 27 27 28
13 14 15 17 18 19 20 19 19 19 20 20 19 19 20 19 19 20 21 22 23 23 23 23 24 25 26 27 23 22 23 26 27 28 28 27 25 25
12 13 15 17 18 19 19 19 19 19 20 20 20 21 21 21 19 19 20 21 21 22 22 24 25 26 27 25 24 24 24 24 25 26 27 28 27 23
13 13 14 16 18 18 18 18 19 19 20 20 20 20 21 20 20 21 20 20 22 22 23 24 26 28 26 26 25 25 24 23 24 24 25 27 29 30

GFSNE_sfc_30mbdewp_051.txt.gz
Dewpoint
53 53 50 44 38 37 38 40 40 37 26 26 26 25 25 25 27 26 29 31 31 33 33 31 31 31 31 32 32 33 33 34 34 34 34 35 35 35
52 51 46 36 35 35 34 34 36 35 34 31 30 29 27 29 32 35 34 35 34 33 32 29 30 31 31 31 31 32 32 32 33 33 33 34 34 34
46 42 36 35 34 35 35 36 35 35 34 30 31 32 31 33 34 34 34 32 30 28 27 27 28 29 30 30 30 30 31 31 31 31 32 32 32 33
37 35 34 34 34 34 35 34 34 35 34 33 32 32 32 32 32 32 32 29 26 24 25 26 28 29 29 28 29 30 30 30 30 30 30 30 30 31
35 34 34 33 33 34 34 34 34 33 33 32 31 31 32 32 31 29 28 26 24 23 24 24 23 23 26 28 29 30 30 30 30 30 30 30 30 30
35 35 35 34 34 34 33 32 32 32 32 31 31 32 32 31 29 26 23 24 22 21 21 22 23 24 26 26 26 27 27 28 29 29 29 29 29 29
34 34 35 35 35 35 33 32 32 32 32 31 29 28 26 25 24 22 21 21 22 22 22 22 22 23 23 24 24 23 24 25 27 28 28 29 29 29
31 32 33 34 36 36 36 35 34 31 29 28 27 25 22 21 21 21 25 22 20 22 22 22 24 22 22 23 23 23 25 25 26 27 28 28 29 28
31 31 31 30 30 28 30 29 28 28 28 27 25 22 20 21 25 23 23 23 23 22 23 21 22 22 22 21 22 23 25 26 26 27 27 28 27 27
30 28 26 25 24 24 23 24 24 24 24 23 23 23 23 22 22 23 25 25 24 23 23 21 22 22 22 23 23 24 25 26 27 27 27 28 28 28
24 24 22 20 21 23 23 24 24 23 24 25 23 22 23 24 24 24 22 22 22 22 23 22 22 23 23 23 24 24 24 24 25 26 26 27 27 27
19 17 20 23 24 25 26 24 23 20 19 19 20 20 19 19 19 21 22 22 22 21 23 21 23 23 23 22 23 24 23 24 25 25 25 26 26 25
17 18 19 25 26 25 24 23 20 21 19 19 18 15 16 18 20 21 22 23 22 22 23 24 24 24 22 22 23 24 24 24 25 25 25 25 26 26
18 19 22 24 23 21 19 17 20 21 19 14 16 18 21 23 24 24 25 25 25 24 25 26 24 22 21 20 19 21 22 23 24 25 26 27 27 27
22 23 22 19 16 15 14 18 19 17 16 17 20 22 23 24 24 24 25 25 25 26 26 25 25 24 23 21 20 20 21 21 22 23 26 26 26 27
21 20 15 15 14 15 15 14 16 16 17 20 21 22 23 23 22 23 23 23 24 23 25 27 27 27 23 23 22 21 21 21 22 23 24 25 26 27
20 14 8 8 10 12 14 16 17 17 18 21 21 21 21 21 21 22 23 23 22 22 22 24 25 26 27 26 23 22 22 23 24 24 25 25 26 27
15 8 8 11 13 15 16 17 19 20 20 21 21 20 21 20 20 20 21 22 21 21 22 22 24 24 24 24 26 24 24 25 25 26 26 26 25 26
11 11 13 15 17 18 19 20 20 20 22 21 21 20 20 20 20 19 19 21 21 22 23 22 23 24 21 20 21 24 23 23 23 24 24 25 25 26
11 14 15 17 18 19 19 20 20 20 21 21 20 21 21 21 20 19 19 20 21 21 22 23 24 23 23 23 24 25 26 25 24 24 25 26 27 28
13 14 15 16 18 19 20 21 20 20 20 21 20 20 20 21 20 20 20 20 21 21 21 22 23 24 25 26 24 22 23 25 26 25 26 25 25 25
13 13 14 16 18 20 20 20 20 19 20 20 20 20 21 22 21 21 20 20 19 20 20 22 23 24 25 25 23 24 24 25 26 27 27 27 26 23
14 15 15 16 18 19 20 20 20 19 20 20 20 21 22 21 21 22 21 21 21 20 21 22 22 24 26 26 27 25 25 25 25 24 24 26 27 30

GFSNE_sfc_30mbdewp_057.txt.gz
Dewpoint
58 57 56 54 51 51 49 47 46 44 38 35 35 37 38 40 42 39 39 41 40 40 40 40 41 40 40 41 39 37 36 36 36 36 36 36 36 37
55 55 53 48 47 45 44 43 43 45 43 34 34 35 37 38 40 37 37 39 40 40 39 39 39 39 41 39 36 34 34 34 34 34 34 35 35 35
47 47 43 42 41 41 41 40 41 42 40 34 34 34 35 36 38 36 37 36 36 36 36 37 39 40 35 32 32 33 33 33 33 33 33 33 34 33
41 41 39 38 39 39 39 39 40 39 39 35 32 32 32 34 34 34 33 33 34 35 38 39 33 30 30 31 31 29 30 31 32 32 32 32 32 32
38 38 37 37 36 36 36 36 35 35 35 34 31 32 32 33 32 33 34 34 33 31 30 29 28 27 26 27 28 29 30 31 31 31 31 30 31 31
36 36 36 35 35 34 34 34 34 34 34 33 32 32 32 33 32 31 29 29 28 26 24 25 25 25 26 26 27 27 28 28 28 29 29 30 30 30
35 36 37 36 36 35 34 34 33 33 32 31 30 31 31 29 29 28 27 24 23 24 22 23 23 23 23 25 26 25 26 27 28 29 29 29 29 29
32 33 34 35 36 37 36 35 35 32 31 30 29 27 26 24 23 24 24 22 20 24 23 22 23 23 24 24 26 27 27 27 28 29 29 29 30 29
31 31 31 30 30 29 28 28 28 29 29 28 26 24 22 23 23 22 22 21 20 23 24 22 24 23 24 24 25 27 27 28 29 30 30 30 29 29
28 27 25 23 23 24 24 24 24 24 24 24 24 24 24 24 23 23 22 23 23 23 24 21 23 22 23 23 25 26 27 28 28 27 28 28 28 28
20 22 22 23 25 26 25 25 24 23 24 25 24 23 22 22 25 24 22 22 20 22 23 22 22 22 22 22 24 26 26 26 26 26 28 28 28 28
18 19 23 25 26 27 24 23 21 20 20 21 20 21 20 18 20 21 22 19 18 19 22 22 22 22 19 22 22 22 23 25 24 24 25 26 26 27
19 19 23 25 24 23 23 20 21 21 21 21 19 16 17 20 22 22 22 19 18 19 22 23 22 23 23 22 22 22 22 22 22 23 24 24 25 26
21 23 23 23 21 19 18 18 19 20 20 17 16 17 19 22 23 24 25 25 25 25 25 26 24 22 21 20 20 21 22 23 23 23 23 24 25 25
21 23 22 19 17 16 16 16 18 16 16 17 19 20 21 21 21 22 23 24 24 24 26 26 26 25 24 21 21 21 22 22 23 24 23 22 23 24
21 20 18 14 12 13 13 13 16 17 17 19 19 20 21 21 22 22 23 24 24 23 25 27 27 26 23 24 24 22 23 22 23 24 24 25 25 25
20 15 11 9 13 14 16 17 18 18 18 20 20 20 20 21 21 23 22 22 21 20 20 22 24 26 27 26 23 23 22 23 23 24 24 24 25 25
18 14 11 14 15 16 18 19 19 20 20 21 21 21 20 20 20 22 22 21 20 19 19 20 22 22 23 25 26 24 23 24 24 24 24 24 24 25
14 12 12 13 15 16 18 18 18 20 20 21 20 21 21 21 20 20 20 20 19 19 19 20 20 21 18 16 18 22 23 23 23 23 24 24 24 24
13 13 13 14 15 15 16 18 18 20 21 20 21 20 20 20 20 19 19 18 18 18 18 19 20 20 20 19 20 21 23 23 22 22 23 24 25 26
14 13 13 14 14 14 15 16 18 19 19 22 21 20 19 20 19 19 19 19 20 20 18 18 18 20 22 23 20 18 19 22 24 23 23 23 24 24
14 14 14 14 14 14 14 14 15 17 18 18 18 18 19 18 18 18 19 18 18 18 18 19 20 20 20 20 18 18 19 20 23 24 26 26 25 23
13 14 15 15 14 13 13 13 14 15 16 17 18 18 17 17 18 18 19 19 19 19 18 19 19 20 20 21 19 20 20 20 21 22 23 27 28 28

GFSNE_sfc_30mbdewp_060.txt.gz
Dewpoint
56 56 56 56 54 52 51 50 48 45 41 38 37 38 40 43 44 44 44 45 44 45 45 45 44 44 44 43 42 42 42 41 40 39 38 38 37 38
51 52 51 48 46 45 45 45 46 45 43 38 36 36 38 40 44 41 42 43 45 44 43 43 43 42 42 41 42 42 41 39 37 37 36 36 36 36
43 43 42 42 42 42 42 42 43 43 42 36 35 35 36 37 39 38 40 39 39 41 41 41 41 40 40 42 40 37 36 34 34 34 34 34 34 35
40 40 39 39 39 40 40 39 40 39 39 37 33 32 33 35 35 35 36 36 35 36 37 38 39 41 38 35 34 33 33 31 31 32 33 33 33 34
36 37 36 37 36 36 36 35 35 36 36 35 32 32 32 33 33 34 34 34 34 37 38 37 36 34 32 30 29 29 30 31 32 31 32 32 32 32
36 36 35 35 35 34 34 34 34 34 34 33 32 32 32 32 33 32 31 34 32 29 28 27 26 27 27 27 28 28 29 29 30 30 30 30 31 31
35 36 38 38 37 36 34 34 33 33 32 31 31 31 31 31 30 31 29 25 23 24 23 22 23 23 23 25 26 26 27 27 29 30 30 31 30 31
32 32 32 33 33 37 36 36 35 32 30 30 29 27 26 26 25 24 24 22 19 23 23 22 23 22 23 24 26 27 28 29 29 30 30 31 30 30
29 28 28 28 28 27 27 27 27 28 29 28 26 24 22 23 22 22 22 21 20 21 24 21 23 22 23 24 26 27 28 29 29 30 31 30 30 30
22 22 22 22 24 25 25 24 24 24 25 24 24 24 23 24 23 22 22 22 23 23 24 19 22 22 22 23 26 27 28 29 29 28 28 29 29 29
21 23 23 24 26 29 24 23 24 23 21 25 25 24 23 24 25 24 23 22 20 21 23 22 22 22 23 22 23 27 27 27 26 27 28 28 28 28
18 19 25 25 26 25 24 22 21 21 21 22 21 20 19 18 21 22 22 19 18 18 22 22 22 21 19 21 22 22 22 24 25 26 25 27 27 27
20 21 23 25 24 22 21 20 19 21 21 20 19 16 18 20 23 23 22 18 17 18 22 24 22 23 22 20 22 22 22 22 23 23 24 26 26 27
20 21 22 24 20 19 17 18 19 21 18 17 16 18 21 21 22 23 24 24 24 24 26 26 23 23 21 20 20 21 21 22 22 23 23 24 26 26
22 23 22 20 19 16 17 17 19 16 16 17 18 18 20 21 20 21 22 24 25 25 25 26 26 25 24 21 20 21 22 21 22 23 23 23 23 23
22 19 16 14 14 15 15 14 15 17 17 18 18 20 20 20 21 22 22 22 22 21 23 26 27 26 23 24 23 22 22 21 21 22 23 24 25 25
21 17 12 11 14 15 16 18 19 20 20 20 20 20 20 20 20 22 22 22 20 19 19 20 22 24 25 24 22 22 22 22 23 23 23 23 24 25
20 16 11 12 13 16 17 18 19 19 20 21 20 21 21 20 21 21 22 21 19 18 18 18 18 20 20 21 24 22 22 22 23 24 24 23 22 24
12 13 13 13 14 15 15 16 17 19 20 21 21 21 21 20 19 19 19 19 18 18 18 18 18 18 16 14 17 19 21 22 22 23 23 22 22 23
15 13 13 13 14 14 14 14 15 17 18 19 20 20 21 20 19 18 18 18 17 17 17 18 18 18 17 16 17 19 21 21 21 21 21 22 23 24
17 16 14 14 14 14 14 14 13 14 16 18 20 18 18 18 18 17 17 18 19 20 18 17 18 20 23 23 19 17 18 20 21 22 21 22 21 22
15 14 14 14 14 14 13 12 12 13 13 14 16 16 16 17 17 17 17 17 17 17 18 18 19 20 19 18 16 17 17 19 20 21 22 23 23 21
12 13 13 14 14 13 12 11 12 12 12 13 14 15 15 15 16 16 17 17 18 18 18 18 18 19 19 19 19 19 19 19 19 19 20 22 24 25

GFSNE_sfc_30mbdewp_063.txt.gz
Dewpoint
52 52 53 52 52 52 52 52 50 46 44 41 40 38 40 43 45 46 47 48 49 49 48 49 49 48 47 46 45 44 45 44 45 45 45 43 42 41
45 46 45 45 44 44 45 46 47 47 45 41 37 37 39 42 44 43 45 47 48 48 47 47 47 45 44 43 43 43 43 45 43 42 41 41 39 38
42 41 40 41 41 41 42 42 42 42 41 38 35 35 36 38 38 40 41 40 42 44 45 44 43 42 42 42 41 43 42 40 39 38 37 37 36 35
38 38 38 39 38 39 38 39 39 38 39 38 33 33 34 36 36 37 38 38 37 37 39 40 40 40 40 41 41 38 36 36 35 33 33 33 34 34
36 36 36 36 36 36 36 36 35 36 36 35 33 33 33 33 33 34 35 35 36 37 37 38 39 39 39 37 35 33 32 31 31 32 32 32 33 33
37 37 36 35 35 34 34 34 34 34 34 33 32 32 33 33 33 32 32 34 33 35 33 30 29 29 29 30 29 29 30 31 31 31 31 31 31 32
34 34 35 38 37 36 34 34 34 33 33 32 31 32 31 31 31 31 30 26 24 24 23 22 22 22 22 25 26 27 27 28 28 29 30 31 30 31
29 28 30 29 28 31 30 32 33 30 28 29 28 26 24 24 24 24 24 21 19 23 22 21 23 22 22 23 26 27 28 28 30 31 31 31 31 31
23 21 22 25 25 24 26 27 26 27 29 27 25 23 22 23 21 22 22 21 20 21 23 20 22 20 22 24 27 28 28 29 30 30 31 31 31 30
21 21 22 24 27 26 24 24 25 22 25 24 23 23 23 23 23 22 21 22 23 23 24 20 22 22 22 23 26 27 28 29 30 30 30 30 30 30
18 20 25 25 27 27 24 23 22 22 22 26 25 25 25 25 26 24 23 22 21 20 23 22 21 22 22 22 23 27 28 27 27 28 28 29 29 29
19 20 24 26 25 24 23 21 18 19 21 22 20 20 18 18 22 24 22 19 19 17 21 22 21 21 18 20 22 22 22 24 26 26 27 27 27 27
20 21 22 25 24 22 21 19 19 21 21 19 17 16 18 20 24 22 22 18 17 17 21 23 21 21 21 20 21 22 22 22 22 23 24 25 26 27
20 21 22 24 23 21 17 18 19 21 16 16 17 19 20 21 21 22 24 23 23 23 24 26 23 23 21 20 20 20 20 21 22 22 23 24 26 27
22 23 21 18 17 16 17 17 19 16 16 17 18 18 20 20 20 20 21 23 23 25 26 27 26 24 24 21 21 21 21 21 22 22 22 22 23 23
23 20 18 14 16 16 16 17 17 17 17 18 18 19 20 20 20 22 22 21 21 20 20 20 24 26 23 23 23 21 21 21 20 21 22 22 24 24
22 18 14 11 12 14 16 18 19 20 20 19 20 20 21 20 20 21 21 21 20 18 18 18 20 21 22 22 20 20 20 21 22 22 23 22 23 24
19 15 13 12 12 13 15 16 18 19 19 20 20 21 21 20 20 21 22 21 19 18 17 17 17 17 18 19 22 21 21 22 22 23 23 23 22 23
17 13 12 12 13 14 14 14 14 16 17 19 19 21 20 20 18 19 18 17 17 17 17 17 16 15 15 13 16 19 21 21 21 22 22 23 22 22
17 15 14 14 14 13 14 13 13 13 14 15 17 18 19 20 19 17 17 16 16 16 16 16 16 16 15 15 16 17 19 19 19 19 19 21 22 23
16 16 16 15 14 14 13 13 12 12 13 14 15 16 17 17 16 17 17 17 17 17 16 16 18 20 22 21 17 16 17 19 20 21 21 20 20 20
14 14 14 14 14 13 13 12 11 11 11 11 12 12 13 14 15 15 15 15 15 15 16 17 19 20 20 17 16 16 16 18 19 20 21 21 21 19
12 12 13 13 13 13 12 11 11 11 11 11 11 11 12 13 14 15 15 16 16 16 16 16 17 18 19 18 18 18 18 18 18 19 19 21 22 23

GFSNE_sfc_30mbdewp_069.txt.gz
Dewpoint
49 49 49 47 47 47 48 49 47 43 44 44 42 39 40 43 44 44 45 46 46 46 48 52 51 53 53 52 51 51 51 49 48 48 47 47 47 47
45 45 44 44 44 44 45 46 46 46 45 42 39 37 38 41 42 42 43 44 45 49 50 50 48 47 47 48 49 48 47 47 47 47 46 47 48 47
41 41 41 41 41 41 42 42 41 42 43 39 36 36 37 38 39 39 39 39 40 44 45 47 46 46 46 46 46 46 45 45 45 45 45 44 43 43
38 38 38 38 38 38 38 37 37 38 39 39 35 35 35 36 37 37 36 36 37 40 42 42 42 43 43 43 43 43 44 43 43 42 42 41 41 40
36 36 36 36 35 35 35 35 36 36 37 37 35 35 35 35 35 35 35 36 36 37 38 37 38 39 40 40 41 40 40 40 39 37 36 36 36 36
36 37 36 35 34 34 33 34 34 34 34 35 34 34 34 34 34 33 33 32 30 27 28 30 31 32 32 33 33 33 33 33 33 34 34 34 34 34
31 31 32 34 34 34 33 31 30 29 31 31 31 31 29 28 28 27 27 25 25 24 23 23 23 23 24 25 25 25 27 29 30 32 32 31 31 32
26 27 28 26 27 29 29 28 29 27 26 27 26 23 23 23 23 23 24 22 21 23 22 21 22 20 20 19 22 25 25 26 26 27 29 30 31 31
23 26 27 28 25 24 25 26 27 28 27 24 21 22 22 23 23 24 23 22 21 22 23 19 21 18 21 22 26 27 28 29 29 30 31 31 31 31
25 25 25 26 28 24 23 22 23 24 27 25 25 25 25 25 25 26 25 24 22 23 23 19 21 20 22 23 25 28 28 29 30 31 31 30 30 31
20 24 26 25 26 27 23 22 17 18 23 26 25 24 25 24 25 25 24 22 18 19 22 22 22 22 22 22 22 28 29 30 29 30 31 30 30 30
20 20 25 26 25 24 22 19 16 19 22 22 18 16 18 21 24 25 24 21 20 20 22 23 22 21 22 21 23 22 23 24 26 27 27 28 29 28
19 19 21 25 23 24 23 17 19 21 21 16 15 18 21 23 24 24 22 23 22 22 22 25 23 22 21 21 21 23 22 22 22 22 23 25 25 26
19 20 23 21 19 20 18 19 23 18 15 15 18 19 20 22 23 23 23 24 23 24 24 26 23 23 21 20 20 21 22 22 23 24 24 25 25 25
21 23 23 19 18 17 19 20 18 16 16 17 19 20 21 22 22 23 22 22 23 23 23 24 24 23 22 20 20 21 21 22 24 24 25 24 24 23
23 23 21 17 15 15 16 17 18 19 19 20 20 20 22 22 20 21 21 20 20 21 23 22 21 21 20 21 21 21 21 21 22 23 23 23 23 24
24 20 17 12 11 12 13 15 17 18 19 20 20 21 20 19 19 20 20 20 20 19 20 20 20 20 21 21 19 20 20 20 22 22 22 22 23 24
22 20 16 14 13 12 12 12 14 15 16 18 19 20 19 19 19 19 20 20 18 18 18 18 17 17 18 18 21 20 20 20 21 22 23 22 22 23
21 20 19 17 16 15 15 15 15 15 16 16 16 17 19 19 19 19 18 18 17 16 17 17 17 16 15 14 16 21 22 21 21 21 21 22 22 23
20 19 17 16 17 17 16 16 15 15 15 15 15 15 15 16 16 17 16 17 16 15 16 17 17 17 15 16 17 18 19 20 20 20 21 21 22 22
16 15 15 15 16 17 17 16 15 15 15 14 14 14 15 15 14 14 14 15 16 17 17 17 18 19 21 21 17 16 17 19 20 21 21 21 20 20
15 14 15 15 16 16 15 15 13 13 14 14 13 13 12 12 12 13 13 15 15 16 17 18 18 18 18 17 16 16 17 18 19 19 20 21 21 19
13 15 16 15 15 14 14 13 12 13 13 12 12 12 12 13 13 14 15 15 16 16 16 16 16 17 17 17 17 17 18 18 19 19 20 21 21 22

GFSNE_sfc_30mbdewp_072.txt.gz
Dewpoint
50 50 49 48 49 49 50 50 48 44 42 46 45 42 42 44 43 44 44 46 45 48 48 50 50 50 52 56 55 55 53 51 50 50 50 49 49 49
47 46 47 46 46 46 47 47 47 47 44 45 41 39 39 41 41 42 42 42 43 46 49 49 48 48 48 49 51 51 49 48 48 48 48 49 49 48
44 43 42 43 43 43 44 44 44 44 45 40 39 38 39 40 40 40 40 39 40 43 44 45 46 46 46 46 46 47 46 47 46 45 45 46 46 46
40 40 40 40 40 40 40 39 39 39 41 41 38 38 38 38 38 38 38 37 37 40 41 42 43 43 43 44 44 44 45 44 44 44 44 44 44 44
37 37 37 37 37 37 37 38 39 38 39 39 37 37 36 36 36 36 36 36 35 33 36 36 37 38 40 40 41 41 41 41 41 41 40 38 38 39
37 37 36 36 36 36 36 35 35 36 36 37 36 35 35 34 34 33 33 31 29 27 27 29 30 30 32 33 33 33 34 34 35 36 36 36 35 36
34 33 34 33 34 33 33 32 31 30 32 33 33 32 29 27 26 26 26 25 25 24 23 23 23 24 24 25 24 25 26 29 32 34 34 35 34 33
30 30 28 25 27 29 29 29 28 26 25 26 25 20 21 21 22 22 23 21 21 24 21 18 20 18 18 19 20 24 26 26 26 27 28 29 30 31
29 28 27 27 24 21 23 25 28 29 27 22 19 19 19 21 26 26 23 22 21 20 20 16 16 14 18 19 24 27 27 28 29 28 29 29 31 31
27 24 24 25 28 24 22 20 20 24 26 25 25 25 25 26 25 26 25 22 20 20 21 19 19 20 22 22 24 27 28 29 30 31 31 31 30 31
22 24 23 23 27 28 22 21 13 15 22 25 25 24 24 24 25 23 23 21 19 17 21 22 23 22 23 22 22 28 30 30 30 30 31 30 30 31
17 18 26 26 26 24 22 17 13 17 21 21 15 14 17 20 23 22 22 23 22 22 23 23 23 23 24 23 25 24 23 25 27 28 29 29 30 30
16 15 18 25 23 24 25 17 18 21 20 16 12 15 18 20 22 23 23 26 24 23 24 24 22 22 22 22 23 24 25 24 23 23 24 26 27 27
15 16 21 22 19 20 18 19 23 21 14 12 15 16 19 21 24 24 24 25 25 25 24 27 23 23 22 21 21 23 24 25 25 26 26 26 27 27
19 21 25 21 18 16 18 20 21 14 13 15 17 21 22 24 25 25 24 24 25 24 25 25 24 23 23 22 21 21 22 24 26 25 26 26 26 26
23 24 22 21 18 16 14 14 14 15 16 17 19 20 22 23 22 22 22 21 21 21 24 25 24 23 22 21 22 21 22 22 25 25 26 26 25 25
23 22 20 15 11 10 10 11 12 14 16 18 19 20 20 20 20 21 20 20 20 20 21 23 22 22 22 22 21 21 21 22 25 26 24 24 25 25
25 22 20 18 14 11 9 9 10 13 14 17 18 19 19 19 19 20 20 19 19 19 19 20 20 19 18 20 23 22 21 22 24 25 24 22 23 24
21 21 21 19 17 16 15 15 16 15 18 18 18 18 18 19 18 18 18 18 18 18 19 19 19 18 17 17 19 23 22 22 23 22 23 23 23 24
21 21 20 18 16 15 17 18 18 17 18 18 18 18 18 18 17 17 17 17 17 17 17 18 19 19 18 18 19 20 21 22 22 22 23 24 24 24
21 21 19 17 16 16 18 19 18 18 18 18 18 18 17 17 17 16 16 16 17 18 19 20 21 22 23 23 18 17 19 21 21 22 22 22 20 21
21 19 17 17 18 18 19 19 18 18 18 18 18 18 18 17 17 16 17 17 18 19 19 20 21 21 20 18 17 18 19 20 21 21 21 22 21 19
18 16 16 18 20 19 19 18 18 17 17 18 18 18 17 17 17 18 18 18 18 18 18 18 19 19 19 19 18 18 18 19 20 20 21 22 22 23

GFSNE_sfc_30mbdewp_075.txt.gz
Dewpoint
51 50 50 49 49 49 50 51 50 45 44 46 46 43 42 43 42 43 43 44 44 48 49 49 49 49 50 51 56 55 54 56 55 55 53 51 51 50
48 47 47 47 47 47 48 48 48 47 44 45 42 40 40 42 41 41 41 42 43 45 46 48 48 47 48 51 52 52 51 51 52 51 50 49 49 50
45 44 43 45 45 44 45 45 44 45 43 42 40 39 40 40 40 40 40 40 40 42 44 44 45 46 46 46 47 48 50 50 50 50 49 48 47 47
42 41 41 42 41 41 41 41 41 41 42 42 39 39 38 38 38 38 38 37 38 37 40 40 41 43 43 44 44 45 45 45 45 45 45 44 44 45
39 38 38 39 39 39 39 39 40 40 40 39 38 37 37 36 36 36 36 36 34 30 31 34 37 38 39 41 41 41 42 42 42 42 42 41 40 40
38 37 37 37 37 37 37 36 36 37 37 37 36 35 35 35 35 32 32 31 29 27 28 28 29 30 33 33 34 34 35 36 37 38 37 37 37 37
34 34 34 33 33 32 32 31 29 30 32 33 33 32 29 26 24 24 24 25 26 25 24 24 23 24 26 25 25 26 28 29 32 34 35 36 36 35
32 31 27 25 28 29 28 29 29 27 25 27 25 20 20 21 22 24 24 23 23 24 22 20 21 20 19 19 25 27 27 26 27 28 29 31 31 31
30 29 26 26 23 21 22 24 29 28 27 24 21 21 20 24 27 27 26 25 23 21 20 18 18 17 21 20 26 27 29 29 28 29 28 28 29 30
27 24 24 25 29 25 22 20 19 23 27 25 25 26 26 27 26 26 25 23 23 21 22 20 22 23 24 24 26 28 29 29 30 31 31 31 31 30
23 24 23 22 27 28 23 22 14 17 23 25 24 23 23 23 24 25 25 23 23 18 23 23 25 24 25 24 24 26 28 30 30 31 31 30 30 31
17 19 26 27 26 26 24 19 14 18 21 21 18 19 19 21 23 21 22 24 24 24 24 24 24 23 23 25 25 26 26 25 25 28 29 30 29 31
16 15 19 25 23 24 25 21 18 24 20 18 13 14 18 20 22 24 24 25 23 23 25 25 23 22 22 23 24 25 26 27 26 26 25 26 28 29
16 15 20 23 20 20 19 18 23 24 17 12 14 17 19 22 25 25 26 26 25 25 25 26 24 24 23 21 21 25 26 26 26 27 27 27 28 28
19 20 25 23 19 18 17 19 21 17 13 14 17 21 23 26 26 25 25 25 25 26 24 24 24 24 25 22 21 21 22 24 25 26 25 26 27 28
23 24 25 23 21 18 16 15 15 14 15 17 19 21 23 24 24 24 22 22 22 22 25 26 25 25 22 21 22 21 22 22 25 26 25 26 26 26
23 23 23 21 14 12 11 11 12 13 15 18 19 21 21 22 22 23 23 22 20 20 20 24 26 24 23 22 21 21 21 22 24 25 26 25 24 26
25 23 21 21 18 14 11 10 10 12 14 17 19 20 21 21 21 22 22 22 20 21 21 21 21 21 20 20 23 21 22 22 24 25 24 24 23 24
25 24 22 22 21 19 17 17 18 18 18 20 20 20 21 21 20 20 20 21 20 20 20 21 21 20 17 16 19 24 22 23 23 23 23 24 23 24
23 22 23 23 21 19 18 19 20 20 20 21 20 21 21 20 20 19 19 19 19 19 19 19 20 20 19 17 18 20 23 22 21 21 22 23 24 25
22 23 23 23 21 19 19 20 21 22 21 21 21 20 20 20 19 19 19 18 18 19 19 19 22 24 26 25 20 18 19 21 22 21 21 22 20 20
23 22 23 22 21 21 21 22 22 21 21 20 20 20 20 20 19 19 18 18 18 19 19 21 22 23 23 20 17 17 18 19 21 21 22 23 22 19
26 24 23 22 22 23 23 22 22 22 21 21 21 20 20 20 19 19 19 18 19 20 19 19 20 21 21 21 19 19 19 19 19 20 21 22 23 24

GFSNE_sfc_30mbdewp_078.txt.gz
Dewpoint
51 50 50 49 49 50 50 51 50 46 45 44 44 41 41 43 42 42 42 44 45 46 48 48 47 47 50 52 52 54 54 55 56 55 56 55 54 53
47 47 47 47 47 47 47 47 47 47 45 43 41 39 40 42 41 41 41 42 43 44 45 46 46 46 46 49 51 51 52 55 57 56 55 54 52 50
44 44 43 45 44 44 44 44 44 44 44 41 40 39 40 39 39 39 39 38 39 40 42 43 44 45 45 45 47 48 50 51 52 52 52 52 51 50
42 41 41 42 40 41 41 40 40 40 42 40 39 38 37 37 38 37 37 37 35 34 37 39 41 42 43 43 44 45 45 45 46 47 48 48 48 48
38 38 38 39 38 38 38 39 39 40 40 39 38 37 37 36 35 35 36 35 31 29 29 31 34 37 39 39 40 40 40 42 43 44 44 44 44 44
38 37 36 36 36 36 35 34 34 36 37 37 36 35 35 34 34 27 26 27 28 25 26 28 29 30 30 31 31 32 34 36 38 40 39 38 38 38
34 33 33 33 32 33 30 29 29 29 28 30 31 30 26 23 22 24 23 23 25 24 22 21 23 21 24 28 28 28 29 30 31 34 36 37 36 36
31 28 26 27 28 27 28 29 28 27 24 26 23 19 20 21 25 24 24 23 22 24 19 17 20 17 19 20 25 28 28 28 27 28 30 32 33 34
30 28 26 26 24 23 23 26 28 27 26 24 21 21 23 25 25 26 25 25 22 22 20 18 22 21 24 24 27 27 28 30 29 29 29 28 28 29
27 26 26 28 28 25 23 20 19 25 26 26 26 26 26 27 25 26 24 23 24 23 22 19 24 24 24 25 27 27 31 30 31 31 31 31 31 31
24 25 24 27 28 26 24 21 15 19 24 23 23 21 21 21 23 25 24 23 22 21 24 23 24 23 25 26 25 27 27 28 28 30 31 32 32 31
18 23 26 27 26 26 25 21 15 19 21 21 18 22 19 21 22 22 23 22 23 23 24 21 22 22 20 25 25 25 26 27 28 27 27 29 31 30
17 16 22 24 23 23 25 22 19 24 21 19 14 14 18 21 24 24 25 23 22 22 26 23 21 21 21 21 22 23 25 26 26 27 28 28 28 28
17 16 23 23 21 20 20 19 22 24 20 13 14 17 20 23 24 25 25 25 25 25 24 24 22 22 22 21 20 22 22 23 24 25 26 27 27 28
19 20 26 24 21 19 19 18 21 20 15 14 16 19 22 24 24 23 25 23 23 24 24 23 23 22 22 22 21 21 21 22 23 23 25 25 25 26
25 22 24 25 23 20 18 16 18 15 15 16 18 21 24 24 23 23 22 20 20 21 22 25 23 22 22 21 21 21 21 21 21 22 23 24 26 25
25 23 23 23 21 15 14 12 13 14 15 17 18 19 21 22 22 22 21 21 20 19 19 20 25 24 24 22 21 20 20 20 21 22 24 25 26 24
24 22 22 21 20 17 14 12 11 12 14 15 17 19 20 20 20 21 20 20 19 19 19 20 20 22 20 19 23 21 20 20 21 22 26 24 23 24
23 24 23 23 22 21 18 16 14 15 14 15 17 18 19 19 20 19 19 19 19 19 19 19 19 20 17 16 18 20 21 20 22 23 23 22 22 22
26 26 25 24 23 22 21 19 18 18 18 17 18 18 18 19 19 18 18 18 18 18 18 18 18 18 19 17 17 18 21 20 20 19 19 21 22 23
24 24 24 24 24 23 22 20 19 20 20 19 19 19 19 19 19 18 18 18 19 18 18 17 19 22 24 24 19 18 19 21 21 21 20 20 20 20
24 23 23 24 24 23 22 20 20 21 21 21 21 20 20 19 19 18 18 17 17 17 17 20 23 23 22 20 18 18 18 19 20 21 21 22 22 20
26 25 24 24 25 24 23 22 22 22 22 21 20 20 20 19 20 19 19 19 19 19 19 20 20 22 21 20 19 19 19 19 20 20 21 22 22 23

GFSNE_sfc_30mbdewp_081.txt.gz
Dewpoint
50 50 50 50 49 50 50 51 51 47 48 43 43 40 42 42 42 42 42 44 45 46 46 46 46 47 48 50 51 52 54 55 55 56 56 55 55 55
47 47 47 47 47 47 47 47 47 48 45 43 40 39 41 42 41 40 40 41 42 43 44 45 46 46 45 47 49 51 52 54 56 55 55 56 56 56
44 44 44 45 44 44 44 44 44 44 44 41 40 39 38 38 38 39 39 38 38 39 41 43 43 45 44 44 45 47 48 51 52 53 56 55 53 52
42 41 41 41 40 41 41 41 40 40 42 41 39 38 37 37 38 37 37 37 31 33 34 36 40 41 42 42 42 43 44 45 47 48 49 50 50 50
38 38 39 38 38 38 38 39 39 40 40 39 37 37 37 35 34 34 35 32 29 28 29 31 31 34 36 38 38 38 39 41 42 43 44 45 45 45
37 36 36 36 36 35 34 33 34 36 37 37 36 35 34 34 32 25 24 25 25 24 25 27 28 29 29 30 31 32 33 35 38 40 39 39 38 39
34 33 33 33 34 33 30 28 29 30 30 33 31 31 25 23 22 24 22 23 23 22 20 19 22 20 26 27 27 28 29 30 32 33 36 37 37 37
30 28 28 29 28 29 30 29 28 25 23 25 22 20 20 22 23 24 24 22 20 24 19 19 20 21 22 23 28 28 29 30 28 29 30 31 33 35
28 26 25 26 24 24 26 28 28 28 28 23 21 21 23 24 25 25 23 23 21 22 20 16 24 22 24 25 28 29 30 29 31 30 30 30 29 29
28 28 28 27 26 23 21 19 24 24 26 25 26 26 26 26 25 25 24 24 24 23 23 18 24 24 25 25 27 28 29 31 31 32 31 31 31 31
24 24 28 28 28 27 23 18 16 21 24 24 23 21 20 21 24 23 23 22 21 22 24 23 23 22 23 26 26 28 29 28 27 28 30 32 33 30
24 25 28 27 27 26 24 17 16 19 21 20 17 22 20 22 24 22 23 20 22 23 24 21 22 21 18 22 23 23 25 28 29 29 29 30 29 30
17 18 22 24 24 24 27 19 19 23 23 19 14 14 18 22 24 25 25 22 21 21 27 22 20 20 20 20 21 22 22 22 23 25 27 27 28 29
17 17 20 24 22 22 21 21 22 25 20 14 14 16 18 22 24 25 25 24 24 23 24 23 22 20 20 19 19 21 21 22 23 22 23 25 26 26
19 18 25 25 22 20 20 18 21 21 17 14 15 17 21 23 24 23 24 24 23 23 23 23 23 22 22 21 20 20 21 21 22 22 23 24 24 25
25 22 25 26 25 20 19 19 19 17 15 15 17 21 24 24 23 21 22 21 19 19 21 21 25 22 20 21 22 20 20 19 20 21 22 23 24 25
26 23 23 24 23 20 17 15 13 14 16 18 18 19 21 22 22 21 21 20 20 19 19 20 21 22 20 21 20 21 20 20 20 20 21 21 23 26
27 23 21 22 21 20 16 14 13 13 14 16 17 18 19 19 19 20 19 20 19 19 19 18 19 21 20 20 24 21 20 20 19 20 21 22 23 23
24 24 23 23 23 23 21 18 16 15 16 15 15 15 17 18 20 19 19 19 19 18 18 18 18 18 18 16 17 22 21 19 20 21 22 22 21 21
22 23 24 24 24 24 23 22 21 19 18 17 16 17 17 18 18 18 17 17 17 17 17 16 17 17 18 17 15 17 21 19 19 19 19 20 21 22
23 24 25 25 25 24 24 23 22 20 19 18 19 18 18 17 18 18 18 19 19 17 17 17 17 20 20 23 19 18 19 22 22 20 19 20 19 20
25 25 25 26 25 25 24 24 23 22 22 21 21 21 20 19 19 19 18 17 17 17 16 17 18 21 22 21 18 17 17 19 20 21 21 22 21 18
25 26 26 26 25 25 25 24 23 22 22 22 21 21 21 20 20 19 19 18 18 18 18 19 20 21 20 20 19 19 18 18 19 19 20 21 22 23

GFSNE_sfc_30mbdewp_084.txt.gz
Dewpoint
50 49 49 50 50 50 50 51 51 47 48 43 42 40 42 42 42 41 42 44 45 45 46 46 46 46 47 48 49 51 53 55 55 55 56 56 56 57
47 47 47 48 48 47 47 47 48 48 46 43 40 40 42 41 41 40 40 40 41 43 44 45 45 46 44 45 47 48 50 53 54 56 57 57 56 56
45 44 44 44 45 44 44 45 45 45 45 40 40 40 38 38 38 38 38 38 35 39 40 42 43 44 44 43 43 44 46 48 51 53 56 56 56 54
42 42 42 41 41 41 42 41 41 42 43 40 39 38 37 37 37 36 36 33 30 32 33 34 38 40 40 41 41 41 43 44 45 48 50 51 51 51
39 40 39 39 38 38 39 39 39 40 41 40 37 38 37 35 33 32 30 29 26 27 30 31 32 32 34 36 36 36 38 40 43 43 43 44 45 46
37 37 37 37 36 35 34 35 36 38 38 38 36 35 35 33 28 26 24 25 23 22 23 25 28 31 31 29 29 30 32 35 37 40 39 39 40 41
35 34 34 35 35 33 30 29 32 32 34 34 33 32 27 23 22 23 21 22 23 22 19 20 19 20 23 26 29 29 29 30 32 34 36 38 38 38
32 30 30 29 29 31 30 29 28 26 28 29 25 27 22 23 23 23 23 21 18 24 19 19 22 23 24 27 29 31 30 31 30 29 31 32 32 34
29 25 24 25 25 26 29 30 30 30 26 23 20 20 21 23 25 24 22 22 20 23 21 16 24 23 24 25 29 31 31 31 31 31 31 31 30 29
27 26 26 25 24 22 20 23 23 24 25 25 25 25 26 26 26 25 23 23 24 23 23 17 23 23 24 25 30 29 29 29 30 32 33 33 33 32
25 26 28 28 28 27 21 17 19 22 25 26 25 25 26 27 25 24 24 21 21 21 24 23 22 21 23 25 25 27 29 30 29 30 29 30 32 33
24 26 29 27 28 27 23 17 15 18 22 21 21 22 20 23 25 22 23 20 22 22 24 21 21 21 18 22 23 24 24 26 26 28 29 29 30 29
20 21 26 28 27 25 27 19 18 22 23 18 14 14 18 22 24 25 24 21 21 21 26 21 19 19 19 19 21 22 22 21 22 24 24 27 28 29
17 17 20 25 24 23 25 24 22 25 21 15 14 16 18 22 24 25 25 24 24 22 24 22 20 19 19 19 18 21 20 21 23 21 22 25 25 26
19 18 20 25 24 22 21 20 22 23 17 15 15 17 20 22 24 24 24 24 22 23 24 23 23 22 21 19 19 20 20 20 21 21 21 21 21 23
23 22 24 26 26 23 21 21 20 20 16 15 16 19 23 24 24 23 21 21 21 20 20 20 21 23 20 20 20 20 20 19 19 20 20 21 22 23
28 23 24 24 25 23 22 19 16 16 17 16 18 20 23 24 23 22 21 19 20 18 19 20 21 22 21 20 20 20 20 20 20 20 20 19 20 22
29 24 22 22 22 23 21 17 15 14 15 18 20 20 21 22 20 19 19 20 20 19 18 18 18 20 19 20 23 22 21 20 19 19 19 19 20 21
27 26 24 22 21 22 22 20 18 16 18 18 17 17 17 17 20 19 19 19 19 18 18 17 17 18 17 16 17 24 21 19 19 19 20 20 19 20
25 25 24 24 23 23 23 22 22 21 18 17 16 16 16 16 17 18 17 17 17 17 17 15 16 16 17 16 15 17 22 19 18 18 18 19 20 22
23 24 24 24 24 24 24 24 24 22 21 20 19 18 18 18 18 18 17 18 18 17 17 17 16 19 17 18 18 18 20 22 21 19 18 20 19 19
24 24 24 26 26 26 26 25 25 24 24 23 21 20 20 18 18 18 18 17 17 17 17 17 16 16 17 19 18 18 18 19 20 20 21 21 20 18
28 27 26 26 27 28 28 27 25 24 24 23 23 22 23 20 20 20 20 19 18 17 17 17 18 20 20 20 19 18 18 18 18 18 19 21 22 22

GFSNE_sfc_30mbdewp_087.txt.gz
Dewpoint
49 49 49 49 49 49 50 50 49 44 47 42 41 41 42 42 42 41 41 44 44 45 45 46 46 46 45 46 47 49 51 52 54 55 56 56 58 57
47 47 46 47 47 47 47 48 48 48 47 43 41 41 42 41 42 39 40 39 41 42 44 44 45 45 44 44 45 46 48 50 52 54 56 55 57 56
44 44 43 44 45 45 44 45 45 45 45 40 40 40 38 38 39 39 38 34 34 38 39 40 42 42 43 42 42 43 46 47 50 52 57 57 56 56
42 43 42 42 41 41 42 42 42 42 44 41 39 38 38 38 37 36 36 30 29 34 34 35 36 37 39 39 39 40 42 44 44 47 49 52 55 54
39 40 40 39 39 39 39 40 40 40 41 40 38 38 37 35 33 32 28 28 24 26 30 32 33 33 34 32 32 34 37 40 42 42 44 46 48 50
37 37 37 37 37 36 36 35 37 38 38 39 37 36 35 32 27 29 25 24 22 22 22 27 27 32 30 30 30 31 32 35 37 40 40 40 41 43
36 35 35 35 36 33 31 30 33 34 36 36 35 33 30 27 25 23 22 22 23 22 19 21 20 23 26 28 31 32 31 32 33 35 36 38 39 39
34 31 31 30 32 32 31 30 28 30 31 32 29 31 26 23 23 22 22 20 17 24 20 20 23 23 24 28 30 32 30 31 31 31 32 33 33 34
32 29 24 26 26 28 31 32 31 30 27 26 26 24 23 23 24 24 22 21 19 23 21 16 24 23 24 26 30 30 31 32 32 32 32 32 31 31
29 25 25 24 23 21 22 24 22 24 26 25 24 24 25 25 26 24 23 23 23 23 23 17 23 22 24 26 31 31 30 29 30 31 32 34 34 33
28 27 27 26 28 26 19 19 22 24 26 26 27 28 29 28 26 25 23 22 20 21 24 23 22 21 22 25 24 29 30 31 30 30 31 32 32 32
24 24 30 28 30 29 24 16 16 20 23 22 22 22 23 24 27 22 23 20 21 21 24 21 20 21 18 22 23 23 22 25 25 28 29 30 29 29
21 23 27 29 29 27 27 18 17 20 23 18 14 16 20 23 24 24 23 21 20 21 26 21 19 19 18 19 20 22 22 21 23 22 25 27 28 28
17 19 20 27 27 25 27 25 23 25 22 17 14 15 17 21 24 24 25 24 23 22 25 21 20 19 19 18 18 20 20 21 22 20 22 23 22 24
19 19 21 23 26 24 24 23 23 24 19 16 15 16 19 21 24 25 25 24 23 23 25 23 21 21 21 19 18 19 20 19 19 20 21 20 20 21
25 23 23 24 27 24 22 22 21 23 20 16 15 18 22 23 23 24 22 22 21 21 21 21 21 21 20 20 19 19 19 19 18 19 20 20 20 21
28 23 23 25 25 25 23 20 19 20 20 18 16 18 21 23 24 24 22 20 21 19 19 20 21 21 21 21 19 19 20 19 19 20 20 19 19 21
31 26 23 23 23 23 22 21 20 19 16 17 18 19 20 22 23 21 20 20 20 19 19 19 19 19 19 20 23 20 20 20 19 19 19 19 19 20
29 28 26 24 22 22 22 21 20 18 18 17 17 18 19 20 21 20 19 19 19 18 18 17 17 18 16 13 17 24 21 18 19 19 19 19 19 20
25 26 27 26 24 23 22 22 22 21 19 18 18 17 17 16 16 18 18 18 18 18 17 15 15 16 16 14 13 17 24 21 19 17 17 19 20 22
25 25 26 25 25 24 24 24 23 22 22 21 19 18 17 16 16 18 19 20 19 17 16 16 16 18 15 17 17 18 19 21 21 18 17 19 19 19
24 23 24 25 25 25 25 24 24 24 25 23 22 21 20 19 19 19 19 18 17 19 20 20 18 16 16 17 16 17 18 19 20 20 21 21 19 17
29 26 26 25 26 26 27 27 27 27 26 25 24 23 22 21 22 21 20 19 19 18 18 18 19 18 17 17 18 18 18 19 19 19 19 21 21 22

GFSNE_sfc_30mbdewp_090.txt.gz
Dewpoint
47 49 49 48 48 49 49 49 47 44 46 43 42 42 42 42 42 41 42 44 45 45 45 45 46 45 45 45 46 47 50 52 52 54 54 56 57 58
46 47 46 46 46 46 46 47 48 47 45 44 42 41 42 42 42 39 40 38 42 43 43 44 45 44 44 43 44 45 47 50 51 53 56 55 56 58
43 44 44 43 43 44 44 45 45 45 45 40 40 40 40 40 40 39 36 33 33 37 38 40 41 41 41 41 41 42 44 46 48 50 56 56 55 57
41 42 42 42 41 41 41 42 42 43 43 42 39 38 38 39 38 37 32 27 29 34 35 36 35 37 36 35 36 39 41 44 45 47 50 55 56 56
38 39 40 39 39 39 39 39 40 40 41 42 38 38 38 36 34 31 29 27 23 27 28 32 35 35 32 32 33 34 37 40 42 43 45 47 50 53
37 37 37 38 38 37 37 37 37 38 39 40 38 37 36 33 29 30 26 24 23 21 22 27 28 29 31 32 32 32 33 36 39 41 42 42 44 45
36 35 35 36 36 36 33 32 33 36 37 38 36 34 32 29 29 25 26 22 23 22 19 22 22 24 28 31 32 31 32 33 35 37 38 39 40 40
35 32 31 31 33 33 31 31 30 31 33 34 33 33 30 26 24 22 21 19 15 24 19 20 24 23 24 29 32 33 33 32 32 33 34 34 35 36
34 32 26 27 27 30 33 31 30 30 29 30 31 29 27 24 24 23 22 20 19 23 21 16 24 23 24 27 31 31 31 33 33 33 33 33 32 32
33 29 25 23 22 23 23 23 22 25 25 24 23 23 24 25 25 24 22 22 23 24 23 17 23 21 24 26 30 30 31 32 32 32 32 33 35 35
30 27 25 24 26 27 19 20 22 24 26 28 29 29 29 28 27 25 23 22 20 21 24 22 22 20 22 25 24 31 30 29 30 30 30 31 32 32
26 25 29 28 30 30 20 17 17 22 23 22 24 23 25 26 27 22 24 19 20 20 24 21 20 20 18 22 23 24 22 26 26 28 28 29 30 28
22 22 25 31 30 30 29 20 16 19 23 19 17 17 22 24 24 24 23 20 20 21 26 21 19 19 18 18 20 22 22 21 22 21 27 27 25 28
18 20 22 29 30 29 27 27 24 24 22 17 14 14 18 21 24 25 24 23 23 22 26 22 20 19 18 17 17 20 20 21 22 20 21 23 22 24
19 19 21 23 27 27 25 28 25 25 20 18 16 16 18 21 24 25 24 24 23 24 26 23 22 21 20 19 18 19 20 19 20 20 21 20 20 21
27 24 24 24 25 26 25 24 22 24 21 18 17 19 22 22 23 24 23 22 21 22 23 23 22 22 20 20 20 19 19 19 19 19 20 20 21 21
26 23 23 23 24 26 23 21 20 21 23 20 17 17 19 22 23 24 22 20 20 18 19 21 22 21 21 20 19 19 20 19 19 19 20 19 19 20
30 26 24 22 23 24 24 23 21 19 19 20 19 17 18 20 22 22 20 20 20 19 19 19 19 20 19 20 23 20 19 19 20 19 19 19 19 19
31 30 28 26 24 23 23 22 21 21 20 19 17 17 19 19 22 21 20 19 19 19 19 17 18 18 15 11 16 24 20 19 18 20 20 19 18 19
27 29 29 28 26 25 24 23 22 21 20 19 18 18 18 18 18 20 19 18 18 19 18 17 16 17 16 12 12 17 24 21 19 19 18 18 20 21
27 27 28 28 26 25 24 24 23 22 22 21 21 20 19 18 17 17 17 19 19 18 17 17 17 18 16 17 16 18 20 22 22 19 16 18 19 19
29 27 27 26 26 25 25 24 24 24 24 23 22 22 21 19 17 17 18 17 18 21 19 19 18 17 17 17 16 17 18 20 21 21 22 22 19 16
27 26 25 25 26 26 25 25 24 24 24 25 24 23 22 21 20 19 20 21 20 18 18 18 19 19 17 16 17 17 18 19 20 19 20 21 21 22

GFSNE_sfc_30mbdewp_093.txt.gz
Dewpoint
47 48 49 49 49 49 50 48 45 40 42 46 44 44 44 43 43 42 43 44 45 45 45 46 46 46 45 45 45 47 49 50 51 52 54 55 56 57
46 46 47 47 47 47 47 48 48 45 42 45 43 42 43 42 42 40 40 40 42 43 43 44 44 43 43 42 43 44 46 48 50 52 56 55 56 56
43 44 45 44 44 44 45 45 46 47 45 42 41 41 42 41 40 39 35 34 37 39 39 40 40 41 40 39 40 41 43 45 48 50 55 55 55 56
41 43 43 42 42 42 41 42 43 44 43 43 40 39 39 40 39 37 30 27 31 36 37 37 36 36 35 35 36 38 41 43 45 47 50 55 57 58
39 40 41 40 40 40 39 40 41 41 41 42 40 39 38 37 35 33 30 27 23 27 30 32 36 34 33 33 33 34 38 41 43 45 46 48 51 56
38 38 38 38 38 38 38 38 38 39 40 41 39 38 37 34 33 32 29 26 25 21 23 27 30 31 33 33 33 33 34 38 40 42 43 44 45 48
37 36 36 36 37 37 35 34 33 35 37 39 37 35 34 31 30 28 29 25 24 23 20 23 23 25 29 32 33 32 33 34 37 38 39 41 42 43
36 34 34 33 35 33 32 32 31 32 34 35 35 35 32 29 27 26 25 22 19 24 20 21 24 23 26 32 32 32 33 32 33 34 35 36 37 38
36 34 29 29 30 32 33 29 29 30 30 32 34 32 31 28 27 26 26 23 20 23 21 17 23 23 24 29 31 31 32 33 34 34 34 33 33 34
35 33 29 25 24 26 25 23 23 26 26 23 25 27 26 27 26 27 25 23 24 24 23 21 22 21 24 28 31 31 31 32 32 32 33 34 35 35
32 29 26 24 24 27 22 21 22 25 28 30 29 29 28 28 26 25 23 23 21 21 24 23 22 21 23 25 24 31 30 29 30 30 31 31 33 32
29 27 31 26 29 30 21 19 18 22 23 24 24 26 27 28 27 23 26 22 22 21 24 24 22 22 23 24 24 24 23 26 28 28 29 29 31 29
28 26 24 31 30 31 28 19 17 19 25 21 20 19 24 24 23 24 24 24 22 22 26 24 22 22 21 21 22 23 23 22 22 22 28 27 26 28
23 21 23 28 32 31 30 28 24 23 22 18 15 16 19 22 25 25 25 25 25 25 28 25 23 23 22 20 19 22 23 23 24 23 23 25 23 24
18 19 22 26 30 30 29 30 27 24 22 20 18 19 21 24 27 27 26 25 24 27 27 24 25 23 23 21 20 21 22 22 23 24 23 23 22 22
27 25 24 25 25 27 28 27 25 26 23 21 20 20 23 24 24 26 25 25 24 24 26 25 24 24 23 22 22 20 21 20 22 22 23 23 22 22
28 25 24 24 24 26 25 23 23 24 25 22 20 19 20 22 23 25 25 23 22 21 22 23 24 24 24 23 21 21 20 21 22 22 22 21 22 23
28 25 23 22 22 23 25 24 21 21 21 24 22 20 19 21 23 24 24 24 22 21 22 22 23 22 22 21 23 21 21 21 22 22 22 21 21 22
30 28 26 25 24 25 25 25 24 23 23 22 22 21 21 21 22 23 23 23 22 22 22 21 21 21 18 14 17 24 21 21 21 21 22 21 21 21
30 31 30 29 28 27 26 25 25 24 23 23 22 21 20 20 21 22 22 21 21 21 20 20 20 20 19 16 16 20 25 23 21 21 21 21 21 22
29 29 30 29 29 28 27 27 26 25 24 22 22 21 21 20 20 20 21 20 20 20 19 19 20 21 20 19 17 17 19 23 24 22 21 20 20 19
29 28 29 29 29 28 28 27 25 25 25 24 23 23 22 22 20 20 19 19 20 21 20 21 20 20 19 18 17 18 18 20 22 25 25 23 21 19
30 31 29 29 29 29 28 27 26 26 26 26 25 24 23 22 21 21 20 19 19 19 22 22 21 20 19 19 19 19 19 19 20 20 21 21 22 23

GFSNE_sfc_30mbdewp_096.txt.gz
Dewpoint
48 48 48 49 50 50 50 49 46 41 40 44 47 46 45 45 44 43 44 45 46 46 46 46 46 45 44 44 45 46 47 47 50 51 53 54 54 55
46 46 47 48 48 49 49 49 48 45 42 46 46 45 44 43 42 41 40 41 43 43 43 43 43 43 42 41 42 43 44 46 48 50 53 56 56 56
43 45 45 46 46 46 46 46 46 46 45 44 43 43 43 42 40 38 36 36 39 40 40 39 41 39 38 38 38 40 42 44 46 49 51 56 55 56
42 43 43 44 44 43 42 42 43 44 45 43 42 40 41 41 40 36 30 30 35 38 37 38 37 36 35 35 35 36 40 42 45 47 48 54 56 56
41 41 42 43 43 42 41 40 41 42 42 42 42 41 40 39 37 35 30 27 24 29 30 35 37 34 34 34 34 34 37 40 42 45 46 49 52 57
40 40 40 40 40 40 40 40 39 40 40 41 41 39 38 36 35 33 31 28 26 22 26 28 30 31 33 34 33 33 35 38 40 42 44 45 47 49
39 38 39 38 37 38 37 39 37 37 38 39 39 37 35 33 33 32 32 29 27 25 22 22 23 24 29 31 32 34 33 35 37 38 40 41 44 45
38 37 37 36 36 35 33 32 33 35 36 37 37 36 35 33 30 30 32 30 28 25 22 22 23 22 27 32 32 33 34 33 35 35 36 37 38 41
38 37 34 31 33 34 34 31 29 31 31 34 35 35 34 31 31 31 29 27 22 25 22 19 23 21 27 31 31 32 32 33 34 35 36 36 35 35
39 37 33 29 28 29 26 25 22 24 25 23 27 32 32 32 31 31 29 24 23 23 23 22 21 21 25 30 32 32 32 32 32 32 33 34 36 36
36 35 32 27 25 27 23 23 21 23 30 30 30 29 29 28 26 24 23 22 20 21 24 22 22 21 23 26 26 31 30 30 31 31 31 32 32 32
34 31 31 26 27 29 24 21 18 21 23 27 28 29 29 29 26 24 26 28 24 22 24 25 23 23 25 25 26 26 26 26 28 28 29 30 31 29
33 30 29 33 29 31 29 20 17 20 23 21 17 20 25 26 21 22 24 29 27 26 26 27 26 24 24 24 24 25 25 24 23 22 29 27 27 28
32 31 29 29 32 31 32 28 23 21 21 19 18 17 18 22 25 26 26 26 26 29 27 29 27 26 25 24 22 23 24 24 25 24 24 26 25 23
23 21 21 27 31 32 31 32 28 24 20 19 18 20 23 27 30 29 28 28 28 29 29 27 28 27 26 24 23 22 23 25 26 26 25 24 24 24
26 23 23 23 26 29 30 30 28 25 22 21 21 23 25 26 26 28 27 27 27 26 28 28 28 26 25 24 23 23 23 23 25 25 25 25 24 23
31 27 25 23 21 22 25 26 27 26 25 24 23 22 21 23 24 27 27 27 26 24 25 26 26 26 26 25 23 23 22 22 24 25 24 23 24 24
29 27 25 23 21 20 22 24 23 24 25 26 25 23 22 23 24 26 27 26 25 25 23 25 25 24 24 24 25 22 22 22 24 25 24 23 24 25
31 28 27 26 24 23 23 25 25 25 26 27 27 26 25 25 24 25 25 24 24 24 24 25 24 23 21 19 20 25 24 24 23 22 23 23 23 24
33 30 29 28 27 26 26 28 28 29 28 26 26 27 26 26 24 24 24 23 23 23 23 24 23 23 21 20 21 21 25 25 24 23 24 24 23 23
34 32 32 31 30 30 30 30 30 29 28 27 27 27 26 26 24 24 24 23 22 22 22 22 23 24 25 23 20 18 19 24 25 24 25 24 22 21
32 32 31 32 32 31 31 31 30 29 29 28 27 27 26 25 24 23 23 23 23 22 22 23 25 24 23 21 19 19 19 21 22 24 25 24 23 22
32 31 33 32 33 33 31 31 30 29 29 29 28 27 27 26 25 24 23 22 22 23 23 22 24 24 22 21 20 20 19 20 21 21 22 23 25 25

GFSNE_sfc_30mbdewp_099.txt.gz
Dewpoint
49 49 49 49 50 50 50 49 47 42 41 46 47 46 46 46 44 43 44 45 46 46 46 46 45 44 43 43 43 44 45 46 48 49 51 52 54 54
47 48 48 48 49 49 49 49 48 46 43 46 46 46 45 44 42 42 41 42 43 43 43 43 43 42 41 40 40 41 43 44 46 49 49 53 55 56
44 45 45 47 47 48 48 47 47 47 45 45 45 44 44 43 41 38 37 38 41 41 40 40 40 39 38 37 37 38 40 43 45 48 49 52 57 56
43 43 44 45 46 46 45 45 44 44 45 43 44 42 42 42 40 36 31 31 38 40 38 38 38 36 35 34 34 34 38 41 43 46 48 49 56 56
42 42 43 44 44 44 43 42 42 42 42 43 42 42 41 40 38 36 31 28 27 33 31 36 37 35 34 34 33 33 36 39 41 44 46 47 51 57
41 42 42 43 43 43 42 41 41 41 41 41 41 41 39 37 37 35 33 29 26 23 28 29 30 29 31 33 34 34 34 37 39 41 44 45 47 50
40 41 41 40 39 39 39 39 39 39 39 40 40 39 37 34 35 35 34 31 28 28 26 24 24 25 28 32 32 34 34 36 37 38 41 42 44 45
39 39 38 37 38 38 36 34 35 37 37 37 39 37 37 35 33 32 33 31 32 28 25 24 25 25 29 32 33 33 34 35 36 37 38 38 39 42
40 39 37 36 36 35 35 34 33 32 32 35 36 37 36 34 33 32 32 32 28 26 25 21 24 23 28 32 33 33 33 34 34 35 36 38 37 37
40 39 37 32 34 34 32 27 23 24 25 24 30 34 35 34 34 34 32 27 24 23 24 23 22 22 26 31 33 33 33 33 32 33 33 35 37 37
39 38 37 32 30 31 28 26 22 24 31 30 30 30 30 30 29 28 26 23 22 22 25 24 22 22 23 27 28 32 31 31 32 31 31 33 32 33
37 36 35 32 29 31 25 25 22 22 25 30 31 31 30 29 27 27 27 28 25 23 25 26 24 24 25 26 27 28 27 26 27 27 31 30 31 30
35 33 32 33 30 31 30 24 21 23 24 24 21 25 27 26 23 22 27 31 28 28 27 29 27 25 26 26 26 27 26 25 24 24 29 28 27 29
34 33 32 34 32 31 32 27 22 21 24 21 19 19 23 24 25 27 27 27 29 31 27 29 28 28 27 25 24 24 26 26 25 26 26 27 26 24
33 33 32 32 35 32 32 32 27 24 21 22 20 22 24 29 30 29 29 28 30 30 29 27 29 27 27 25 25 24 24 26 27 27 27 25 25 25
30 24 25 27 30 33 32 32 31 26 23 22 23 26 29 29 28 29 28 28 28 27 28 27 28 26 26 25 24 24 24 24 26 26 26 26 26 25
31 26 24 24 25 27 30 31 30 28 25 24 25 25 26 26 27 29 28 28 27 26 27 27 27 27 27 26 24 25 24 24 25 26 26 24 25 26
32 28 25 23 23 22 25 27 27 27 27 27 26 26 24 25 26 28 28 27 26 26 26 26 25 24 25 25 26 24 23 23 25 26 25 23 24 27
33 30 28 26 23 23 23 25 26 26 27 28 27 27 27 26 25 27 27 26 26 26 26 27 26 24 22 19 25 27 24 25 25 24 25 25 23 25
34 31 29 29 28 25 25 26 27 27 27 27 28 28 27 26 25 26 26 25 25 25 26 26 25 25 22 21 23 23 27 25 25 24 25 26 26 26
34 33 32 32 32 30 27 27 29 29 29 28 27 27 28 27 26 25 25 25 25 25 24 25 25 26 26 23 19 21 22 26 26 25 25 24 23 23
34 34 33 34 33 33 31 31 31 30 30 29 28 28 28 27 25 25 25 25 24 24 24 25 26 25 23 20 20 22 21 22 24 25 25 24 23 21
34 34 34 34 34 34 33 32 31 30 30 30 29 28 28 27 26 25 25 24 24 24 24 24 25 25 23 22 23 22 21 20 21 21 23 24 24 24

GFSNE_sfc_30mbdewp_102.txt.gz
Dewpoint
52 51 49 50 50 50 50 49 47 42 42 47 46 46 46 45 44 44 44 46 47 46 46 45 45 44 43 42 42 42 44 45 46 48 49 50 51 53
49 49 48 49 50 50 49 49 48 47 43 46 46 45 45 44 43 42 42 43 43 44 44 43 43 41 40 40 39 40 41 43 45 46 49 50 53 55
47 47 47 48 48 49 48 48 48 47 44 45 45 44 44 42 41 39 37 39 41 41 41 41 40 39 37 36 35 35 38 41 43 45 48 49 53 57
44 45 45 46 47 47 47 46 46 46 45 44 44 42 42 42 40 36 32 33 39 40 39 39 38 36 36 34 34 34 35 40 42 44 47 48 52 57
43 43 43 44 44 45 45 44 43 42 43 43 42 42 41 40 38 36 31 30 29 35 33 35 37 35 33 33 35 35 35 39 40 43 46 47 50 56
42 42 43 44 44 44 42 41 41 41 41 41 42 41 40 38 38 36 34 31 28 23 29 30 29 27 30 32 34 35 35 38 39 41 44 45 47 52
41 42 42 41 41 42 42 41 40 40 40 39 40 40 38 35 36 36 35 33 31 29 27 24 25 26 29 34 34 34 36 36 38 40 40 43 45 47
40 40 39 39 39 39 38 37 38 39 37 37 38 37 37 36 35 34 34 31 31 28 25 24 24 25 29 32 33 33 33 34 36 37 39 39 41 44
40 39 38 38 38 37 37 36 35 34 35 37 36 36 36 36 34 33 33 33 29 25 24 22 24 24 29 33 34 33 33 33 34 34 36 39 38 40
39 39 38 36 36 35 35 31 27 25 26 28 33 35 36 36 34 34 33 27 24 23 24 20 22 23 28 31 33 33 33 33 33 33 34 34 37 37
40 39 38 34 35 36 34 28 24 25 29 28 30 32 33 36 33 32 28 25 22 22 24 23 22 22 23 27 30 32 31 32 30 32 33 33 33 36
39 39 39 34 34 35 31 27 23 23 30 31 30 30 30 29 29 29 27 23 22 21 24 24 23 23 21 26 27 28 27 26 26 29 30 30 32 31
38 37 36 37 34 34 31 26 24 24 29 29 28 28 28 23 21 25 29 29 25 26 26 28 25 23 27 25 26 26 26 26 24 25 29 28 27 29
36 35 34 36 35 33 34 28 26 26 25 24 21 24 26 23 24 26 27 28 31 27 27 28 25 25 24 23 23 24 25 26 25 26 26 27 27 25
36 36 35 35 36 34 33 32 25 24 23 22 20 20 23 25 27 27 27 28 28 28 27 27 25 26 25 24 23 23 24 25 26 25 26 25 25 25
37 36 35 35 36 34 33 33 28 23 22 23 21 23 28 27 26 26 23 24 23 25 27 26 26 24 22 24 23 23 22 20 25 25 26 25 25 25
35 31 31 31 32 33 31 31 31 27 25 22 23 25 26 27 27 27 26 26 25 25 24 25 27 26 26 24 23 23 23 24 24 24 25 23 24 25
33 30 29 28 26 28 30 31 32 30 27 24 25 26 25 25 26 28 27 26 24 26 25 25 24 23 23 24 25 22 24 23 24 25 25 22 21 24
33 31 30 29 28 26 27 30 30 29 27 26 25 25 24 25 25 27 26 26 25 25 25 25 23 21 18 12 25 27 20 24 24 25 25 24 22 24
35 32 31 30 28 25 24 26 27 27 27 27 27 26 26 25 25 26 26 25 24 25 26 25 24 23 17 16 20 22 28 24 24 23 23 24 25 27
34 32 32 32 31 30 27 27 27 27 27 27 28 27 27 26 25 26 26 25 24 24 24 25 25 26 22 22 19 19 22 28 25 24 23 23 22 23
33 32 32 32 32 32 31 30 29 29 28 27 27 27 27 27 25 25 25 24 25 25 24 24 25 24 23 23 18 18 21 22 26 26 26 24 21 20
32 33 32 32 33 33 32 31 30 29 29 28 27 27 27 26 26 25 25 25 25 25 24 24 24 23 23 22 20 19 21 21 22 22 23 25 26 26

GFSNE_sfc_30mbdewp_105.txt.gz
Dewpoint
56 55 52 51 50 50 50 48 45 41 43 46 46 46 46 45 45 45 45 47 47 47 46 45 45 44 43 42 42 41 41 43 45 47 48 49 50 51
54 53 51 49 50 50 50 49 48 45 41 45 45 45 45 44 44 43 43 43 44 44 44 43 43 41 40 38 37 37 39 41 43 45 47 49 49 51
52 51 49 48 49 49 49 48 48 47 45 44 44 44 43 42 41 39 39 40 42 42 41 42 40 38 37 36 35 35 35 39 41 43 46 49 50 52
49 48 47 48 48 48 48 47 47 47 46 44 44 43 43 42 41 37 34 34 40 41 40 39 38 37 35 34 36 36 35 38 40 42 45 48 49 54
46 46 45 46 46 46 46 46 45 45 45 44 43 42 42 41 39 36 32 31 32 37 36 35 37 35 31 33 35 36 35 38 38 41 44 46 48 55
46 44 44 45 45 45 44 44 43 42 41 42 42 42 40 39 38 37 35 32 30 25 29 31 30 27 30 34 34 36 36 36 38 40 43 45 46 51
44 45 44 44 45 44 43 42 41 40 40 39 39 40 39 37 37 37 36 35 32 30 26 25 25 26 30 34 34 34 34 35 37 39 41 43 45 48
42 42 43 42 43 43 43 42 41 40 39 39 38 38 37 37 36 36 35 33 33 30 26 24 24 24 28 32 33 33 33 33 34 36 40 40 43 45
41 41 40 40 40 40 40 39 38 40 40 38 37 37 37 37 36 34 34 33 32 27 25 22 24 23 29 33 33 32 32 33 33 34 36 39 41 43
40 40 39 38 38 37 36 35 34 33 34 34 36 37 37 37 36 35 34 30 24 24 24 18 23 22 28 30 33 32 33 33 32 33 34 35 39 41
39 40 39 37 38 38 35 33 28 25 29 29 29 31 34 38 36 33 30 27 25 22 23 22 22 22 24 28 29 32 30 30 29 32 33 34 35 37
39 39 40 37 38 38 34 32 28 24 27 29 29 31 32 36 36 32 29 28 23 21 23 22 22 22 18 25 26 27 28 27 26 31 30 31 32 31
39 39 39 40 38 38 37 31 29 25 29 28 28 28 28 26 24 28 28 26 22 21 25 25 22 24 26 24 26 26 26 26 24 25 29 29 28 30
38 38 38 40 38 37 37 32 31 28 29 28 27 27 26 23 23 27 29 30 28 25 27 25 24 20 20 22 22 25 25 25 25 25 26 27 28 27
39 38 38 39 40 38 37 36 30 28 26 26 24 25 26 24 26 26 27 27 27 28 28 27 24 23 23 21 22 22 23 25 25 25 25 25 25 24
41 39 39 39 39 38 37 38 32 26 25 25 23 22 26 25 25 25 24 25 23 25 27 25 24 24 22 23 21 21 21 17 25 25 25 25 25 25
39 36 36 36 34 34 33 34 32 28 27 25 23 23 26 26 25 24 22 23 19 20 22 25 26 26 25 22 20 21 22 23 24 23 24 22 23 24
35 34 33 32 32 32 31 31 31 31 27 24 24 25 25 25 25 25 25 22 22 24 21 22 24 22 21 22 25 19 22 22 23 24 24 22 18 23
36 34 32 31 31 31 31 31 31 32 30 27 25 25 25 24 26 26 26 25 24 24 24 24 22 19 13 9 24 26 20 22 23 24 24 23 19 23
36 34 32 31 31 30 30 31 31 31 31 28 26 26 25 24 25 25 25 25 25 24 25 24 23 20 14 12 16 22 26 21 23 22 23 24 24 26
35 34 33 31 31 30 30 30 31 31 30 28 27 26 25 25 24 25 25 25 24 24 24 25 25 25 21 22 20 21 23 28 24 22 21 23 23 22
33 32 32 31 31 31 30 30 30 30 29 28 28 27 27 26 25 25 25 24 25 24 23 24 26 25 23 23 20 17 20 22 27 27 26 22 18 17
32 32 32 31 31 31 31 31 30 30 30 29 28 27 27 26 26 25 25 24 24 25 25 24 24 25 25 23 22 19 20 20 21 22 25 27 27 26

GFSNE_sfc_30mbdewp_108.txt.gz
Dewpoint
57 56 55 54 52 51 49 48 46 43 44 45 46 46 46 46 46 45 45 47 47 48 47 46 45 43 42 42 40 39 39 41 41 43 46 47 48 49
56 56 55 53 52 50 50 49 47 44 40 45 45 45 45 44 45 43 43 44 45 45 45 44 43 41 40 38 37 37 36 36 40 40 44 46 48 49
55 55 54 51 50 49 49 49 48 47 44 44 44 44 44 43 42 40 40 41 42 43 42 42 41 39 38 36 36 37 36 36 39 40 43 46 49 50
55 54 53 51 49 49 48 48 47 47 46 44 43 43 43 42 41 39 36 36 40 42 41 40 40 38 36 35 35 36 36 37 38 39 42 45 48 50
53 52 52 50 48 48 48 47 46 46 46 44 42 42 42 41 39 37 34 32 35 39 39 37 39 36 32 32 35 35 37 37 38 40 42 45 47 49
50 50 49 48 48 47 47 46 45 44 44 43 42 41 40 40 39 38 37 33 33 28 33 30 33 29 30 35 34 35 35 35 36 37 41 44 46 48
47 47 47 47 47 47 46 45 44 43 41 41 40 40 39 37 38 38 38 37 34 32 26 27 26 26 28 32 34 35 34 34 34 36 40 42 45 47
45 45 45 46 45 46 46 45 44 42 41 40 39 39 38 38 37 37 36 34 35 32 29 27 24 24 26 31 34 33 32 33 34 35 37 41 44 45
43 43 43 43 44 44 46 45 44 44 42 40 38 38 38 38 37 36 35 34 34 29 27 26 24 23 27 32 34 32 32 32 33 34 35 39 42 43
41 41 41 40 41 41 41 40 40 41 42 40 39 38 38 38 37 36 35 33 27 26 24 21 23 22 25 30 34 31 33 32 33 33 34 36 39 40
40 40 40 39 40 41 38 37 36 34 32 35 36 37 38 39 37 35 33 31 28 25 24 20 22 21 24 27 29 33 30 29 29 32 33 34 34 36
39 39 40 40 39 41 37 35 34 31 28 28 30 31 35 37 39 35 32 32 26 27 24 21 21 22 18 24 26 27 28 28 28 31 31 31 32 29
39 39 39 41 40 40 40 34 33 29 28 27 27 29 29 32 35 32 31 30 26 24 24 22 21 22 24 23 25 26 26 25 24 25 27 30 29 30
39 39 39 40 42 40 41 37 35 31 28 27 26 26 27 27 25 27 28 27 25 25 27 24 22 21 23 22 20 25 25 25 25 25 26 26 28 28
42 40 40 40 41 42 41 40 37 32 28 27 26 26 26 24 25 27 27 27 27 28 28 25 22 19 19 16 21 22 22 24 25 24 25 24 24 23
41 42 40 39 40 40 40 40 37 33 31 30 28 27 26 25 25 25 25 25 25 24 25 25 23 23 22 22 20 21 22 17 24 25 25 25 25 24
39 38 37 37 36 37 36 36 36 31 30 30 28 27 26 26 26 24 23 23 18 21 23 25 25 24 23 21 19 21 22 22 23 23 23 21 23 23
38 36 36 35 35 35 34 33 32 31 31 29 28 27 26 26 25 23 22 22 19 19 20 22 23 21 19 21 24 18 21 22 23 24 23 21 17 22
36 36 35 34 34 34 33 32 31 31 31 29 28 28 27 26 25 24 23 21 21 22 20 21 21 15 10 6 23 26 19 22 22 23 24 23 18 22
36 36 34 35 33 33 32 32 32 31 30 30 29 28 27 26 25 25 25 24 22 22 23 23 20 16 10 10 15 24 26 20 22 22 23 24 24 26
32 34 35 34 32 32 32 32 32 31 31 30 29 28 27 25 24 25 25 25 24 23 22 24 24 23 20 22 19 20 25 26 24 21 21 22 22 22
31 32 33 33 32 32 31 31 31 31 31 31 30 28 27 25 25 25 24 24 25 23 23 24 26 23 21 21 18 16 20 23 28 27 24 22 18 15
30 31 32 32 32 32 31 31 31 31 31 30 30 29 27 26 25 25 25 24 25 24 23 24 25 25 24 23 22 20 19 21 22 23 27 28 27 26

GFSNE_sfc_30mbdewp_111.txt.gz
Dewpoint
58 58 57 56 55 54 53 52 50 47 47 46 47 47 47 46 47 46 46 47 48 48 47 46 45 44 42 41 40 39 39 38 38 40 41 42 46 47
58 57 57 55 54 53 52 51 49 47 45 45 46 45 45 45 46 44 44 45 46 46 45 44 43 41 40 39 38 39 39 37 36 39 40 41 46 47
57 56 56 56 54 53 52 51 50 47 45 44 45 44 44 44 44 42 42 42 43 44 44 43 42 39 38 37 37 38 38 37 38 39 40 43 46 48
56 56 55 54 54 53 51 50 49 48 46 43 43 43 44 43 42 40 39 39 41 42 43 41 41 39 37 35 35 36 37 37 37 38 40 43 46 48
55 55 55 54 52 51 50 50 49 48 47 44 42 42 42 42 40 39 37 35 37 41 41 40 40 39 34 33 36 34 36 36 36 36 39 42 45 47
51 51 52 51 51 50 49 48 47 46 45 44 42 41 41 40 40 39 37 34 34 32 37 34 35 34 31 35 35 35 35 35 35 36 38 42 44 46
47 48 49 49 49 49 48 47 46 45 44 43 42 41 40 38 38 38 38 37 35 33 29 30 30 27 27 31 33 35 34 34 34 35 37 41 44 46
43 45 46 47 47 48 48 47 46 45 43 42 41 41 40 39 38 37 37 36 35 34 30 28 25 25 26 28 34 33 32 33 33 34 36 40 43 44
41 42 42 43 44 45 47 47 47 46 45 43 42 41 40 40 38 36 36 35 35 31 30 29 25 24 25 30 35 33 32 32 33 34 35 38 40 42
40 41 41 41 42 42 43 45 44 44 45 43 42 41 40 39 38 37 37 34 29 27 27 27 23 23 25 30 33 32 32 32 32 33 34 35 36 39
40 40 40 40 41 42 41 40 40 40 38 40 40 40 40 40 38 36 34 33 31 27 25 23 22 22 23 26 29 33 31 29 29 32 33 33 33 35
41 40 40 41 41 41 42 39 38 38 36 35 35 36 39 39 39 37 35 34 31 29 25 23 21 21 18 24 27 28 28 28 29 30 31 31 32 27
41 40 40 40 42 42 42 39 38 36 34 31 29 29 31 34 38 35 34 35 31 31 25 22 20 21 19 23 25 26 26 25 24 24 27 29 31 30
38 39 41 40 41 42 42 42 39 36 32 29 27 27 28 30 32 32 31 28 27 28 27 22 20 21 21 22 19 25 24 25 24 25 25 26 27 30
38 38 39 41 41 41 42 42 41 36 30 29 27 26 27 28 27 27 27 28 28 29 27 23 21 19 20 16 20 23 22 24 24 24 24 23 23 23
34 36 38 39 41 40 41 42 40 34 32 31 31 30 28 27 26 27 27 26 26 25 26 26 21 21 20 20 20 21 22 19 24 24 24 25 24 24
34 35 36 36 37 37 38 38 37 35 33 31 30 28 27 26 26 25 25 24 23 23 23 25 24 23 22 22 20 20 20 22 23 23 22 20 22 23
33 33 34 35 35 35 35 35 34 33 32 31 29 29 27 26 25 25 24 24 22 21 22 23 24 21 19 20 22 20 21 22 23 24 23 18 17 23
30 31 32 35 35 35 35 34 33 33 32 30 29 28 28 27 27 24 24 23 21 19 20 22 21 14 9 6 22 24 17 21 22 23 24 22 18 23
27 29 30 33 34 34 34 34 33 31 31 30 29 28 28 27 26 25 24 23 20 21 20 20 20 14 9 8 17 25 24 22 22 22 23 24 24 26
26 27 29 31 33 34 34 33 33 31 31 30 29 28 28 27 26 25 25 25 21 20 21 21 20 21 19 22 19 22 26 25 23 21 21 21 21 22
24 27 28 30 31 33 33 32 32 32 31 30 29 29 28 28 26 25 25 25 24 22 21 23 24 21 21 18 15 17 22 26 27 25 24 21 18 14
25 26 28 29 31 31 32 31 31 31 31 31 29 29 28 27 27 26 25 24 25 23 23 23 24 23 22 21 19 17 20 21 25 26 27 28 26 24

GFSNE_sfc_30mbdewp_117.txt.gz
Dewpoint
58 58 58 58 58 57 57 56 54 51 52 51 50 50 52 51 51 51 51 51 51 51 51 53 50 48 47 45 42 41 42 42 42 41 42 42 42 42
58 58 58 58 58 57 56 56 56 54 51 52 50 50 50 50 50 50 48 49 50 50 51 49 48 46 45 42 40 40 40 41 40 41 41 41 41 44
58 57 57 57 57 57 56 55 54 53 51 52 48 47 47 47 47 47 47 47 47 49 49 48 47 45 43 41 39 39 39 39 39 38 39 39 40 45
52 52 53 54 54 55 55 54 53 53 52 50 48 45 46 47 47 45 44 44 44 45 47 47 46 44 42 40 38 37 37 37 37 37 38 38 40 45
46 47 48 48 49 50 52 52 52 52 51 50 49 44 44 44 42 43 42 42 42 43 45 46 45 44 42 40 37 37 36 35 36 36 37 37 41 45
43 44 44 44 45 46 47 48 49 49 49 48 46 43 42 42 43 41 40 40 40 40 43 45 45 44 44 40 37 37 34 35 35 35 36 36 41 43
42 42 42 43 43 43 44 45 46 47 47 46 45 43 41 40 41 42 42 41 39 39 39 41 42 41 41 38 37 35 34 35 34 35 35 36 40 42
39 40 41 41 42 43 43 44 46 45 45 45 45 43 43 42 42 41 42 39 37 39 38 37 37 35 32 32 32 32 34 33 34 35 35 35 39 41
39 39 39 40 41 41 41 42 43 44 47 46 44 44 44 43 43 40 41 39 39 37 38 36 31 32 31 28 31 32 34 33 33 34 34 35 36 39
38 37 38 38 39 40 40 41 41 41 43 45 46 46 45 45 43 42 41 39 34 34 36 35 30 30 28 28 31 35 33 32 31 33 34 34 34 36
31 33 35 35 38 39 40 40 41 41 41 43 45 46 46 46 44 40 37 36 34 32 32 33 27 29 27 28 30 35 33 33 29 33 33 34 33 31
28 28 30 32 34 35 36 37 37 39 40 40 39 41 43 44 44 41 38 36 34 32 32 32 25 25 26 25 28 32 32 31 30 30 30 32 33 27
28 28 28 30 31 31 33 35 37 39 40 41 39 38 38 39 41 40 38 38 35 35 31 31 26 24 23 24 26 30 31 29 27 25 27 30 34 32
27 28 28 30 31 31 32 34 35 38 39 38 36 36 35 35 36 37 37 37 36 36 32 29 27 25 24 23 23 27 28 27 27 25 26 26 29 31
27 28 29 29 29 30 31 33 36 37 37 35 35 34 34 34 33 32 32 31 31 32 33 30 27 25 24 24 23 25 26 26 27 27 25 24 24 25
29 30 28 27 27 28 30 33 34 36 36 35 35 33 32 31 31 30 29 29 28 26 27 28 27 25 22 24 24 25 25 24 26 25 25 25 23 23
28 26 25 26 26 26 28 31 34 35 35 35 33 31 30 29 29 29 29 28 28 25 24 25 25 25 26 23 22 24 23 24 25 25 24 23 23 23
24 23 23 24 24 24 27 28 30 33 34 34 33 31 29 28 28 28 28 28 28 26 25 24 25 25 24 23 25 23 23 24 24 24 22 21 22 23
22 22 23 24 24 25 26 27 28 31 33 33 32 31 30 29 29 27 27 27 27 26 26 25 25 26 22 20 24 24 23 23 24 23 23 21 23 24
22 22 22 22 24 24 25 26 28 30 31 32 32 31 30 29 27 26 26 26 26 24 23 24 25 25 23 21 22 25 24 24 24 23 23 24 25 27
23 23 23 23 24 24 25 26 27 28 30 31 31 31 30 29 28 27 26 27 26 25 23 23 25 27 24 27 23 22 24 25 25 24 25 23 22 22
22 21 22 23 23 24 25 26 27 28 29 30 31 31 30 30 29 27 27 27 26 25 24 24 26 25 24 21 22 22 23 25 26 25 24 24 24 21
22 22 21 21 22 22 23 25 25 26 29 29 31 31 30 29 29 28 27 28 25 25 24 22 23 23 22 21 23 23 22 24 24 24 25 25 27 26

GFSNE_sfc_30mbdewp_123.txt.gz
Dewpoint
58 57 57 57 58 58 57 57 54 51 51 52 53 56 55 56 56 56 55 55 55 55 56 57 57 57 55 56 55 54 51 49 48 47 46 46 46 46
57 58 58 58 58 58 58 57 57 55 52 54 54 55 53 53 53 53 54 54 54 54 55 55 55 54 55 54 53 51 49 47 47 46 46 46 45 45
57 57 56 55 56 56 56 56 56 55 53 53 54 54 53 53 52 52 52 53 53 53 55 55 54 53 53 52 51 49 47 46 46 45 45 44 44 43
47 48 48 48 49 51 51 50 50 50 50 49 51 51 51 51 51 50 50 50 50 51 52 54 53 53 52 51 49 47 46 45 44 43 43 42 42 42
45 45 45 45 44 45 45 45 46 47 47 46 46 48 49 49 48 48 48 48 48 48 50 51 53 53 51 50 49 47 45 43 42 41 40 39 40 40
41 41 42 41 40 41 42 42 43 43 42 42 42 43 44 46 45 44 44 45 45 46 46 48 50 52 51 50 49 47 45 43 42 40 38 38 38 38
37 37 38 38 40 39 40 39 39 39 39 39 41 40 39 41 42 43 43 43 44 44 44 44 46 48 49 50 48 46 44 42 41 39 38 38 37 37
36 36 35 34 35 36 38 38 37 37 36 36 37 36 37 40 42 43 43 42 40 44 42 42 43 44 46 48 47 46 44 42 41 39 38 37 36 36
32 31 30 28 31 33 32 32 33 34 36 35 35 36 37 38 39 40 40 42 42 43 41 40 42 41 44 45 47 46 44 43 41 39 37 35 35 35
28 28 28 28 31 32 31 31 31 31 31 32 33 35 38 39 39 40 41 41 42 40 41 38 37 39 40 39 43 45 43 42 40 39 37 35 35 35
28 28 28 28 30 31 31 30 29 30 31 32 33 34 36 37 39 41 39 38 37 38 37 37 35 35 35 35 37 42 42 40 39 37 34 33 34 34
26 26 27 29 30 30 29 28 28 29 30 31 33 34 36 36 38 39 39 36 36 35 35 35 32 32 32 32 34 36 40 40 39 37 32 33 32 35
25 24 25 28 29 29 28 28 28 30 29 32 34 35 36 36 37 38 39 37 35 36 36 35 32 31 32 29 31 32 35 37 37 34 32 30 31 34
26 26 28 29 28 28 28 27 28 29 27 29 30 33 34 34 36 37 36 35 36 35 37 35 33 32 31 28 28 31 32 33 33 32 29 27 30 30
27 28 29 27 26 26 26 26 26 27 26 27 27 29 34 35 34 34 33 32 32 31 33 34 34 32 32 30 28 29 30 31 32 30 28 27 27 27
28 29 27 26 25 25 25 25 26 27 25 27 28 29 33 33 32 32 31 31 30 29 29 31 32 32 30 31 30 29 31 28 31 30 28 26 25 28
28 28 26 24 24 24 24 25 25 25 25 27 27 28 30 32 32 32 30 30 29 30 27 28 30 30 30 30 29 30 30 29 29 29 27 25 25 25
27 26 24 24 23 23 23 24 24 23 25 26 27 28 29 30 31 31 30 30 29 30 28 27 27 27 28 29 31 29 29 28 29 27 27 25 24 23
24 24 24 23 23 22 23 23 24 25 26 26 27 28 29 30 31 30 30 29 29 30 30 28 27 28 25 24 26 30 28 28 26 25 26 27 25 24
23 23 23 23 22 22 23 23 24 24 25 25 27 27 29 29 29 30 30 29 29 30 28 28 28 29 29 26 24 25 30 27 25 26 27 28 29 30
23 23 22 22 22 22 23 23 23 23 24 24 25 26 28 29 29 30 30 30 30 29 27 27 29 32 29 29 24 24 27 30 30 27 27 25 23 24
22 22 22 23 22 23 23 22 22 22 22 22 24 25 27 29 29 30 30 29 29 29 29 29 29 29 28 28 23 23 25 28 30 29 28 28 26 20
22 22 22 23 23 23 22 21 21 22 22 23 24 25 26 27 30 30 31 30 29 28 27 26 27 28 27 27 24 24 24 25 26 27 29 29 28 30

GFSNE_sfc_30mbdewp_126.txt.gz
Dewpoint
59 59 58 57 57 56 55 54 51 50 50 52 53 55 56 56 56 56 55 55 55 55 55 55 56 57 58 58 58 57 57 57 55 53 50 49 49 48
58 57 57 57 57 57 57 57 57 55 52 55 55 55 54 54 54 53 53 53 53 54 54 54 54 55 56 57 56 56 56 55 53 51 50 49 48 47
55 56 54 54 53 53 53 53 53 53 51 53 53 53 52 52 52 52 52 51 52 53 53 53 53 54 55 55 55 55 55 54 51 50 49 48 47 46
48 48 47 48 48 48 48 47 48 48 47 45 46 47 48 49 49 48 48 49 49 49 49 50 50 52 54 54 54 55 54 52 50 50 49 47 46 45
45 45 44 44 43 42 43 43 43 43 43 43 42 43 44 45 44 46 45 45 46 46 47 47 47 48 50 52 53 53 52 50 49 48 47 45 44 43
40 41 38 39 38 38 40 39 39 38 39 39 38 39 40 41 43 42 41 42 43 44 46 46 47 47 47 49 52 52 50 49 48 46 45 43 41 41
37 37 36 37 36 38 39 38 36 36 36 35 35 35 35 35 35 39 39 39 38 42 43 44 44 44 45 47 48 51 49 48 47 46 45 43 41 40
34 33 34 31 35 35 34 34 34 34 34 34 35 34 33 34 36 37 36 35 34 39 41 41 42 42 43 45 47 49 49 48 47 46 45 43 42 40
30 30 28 32 33 32 32 32 32 32 32 32 31 32 32 34 36 35 36 36 36 38 40 38 40 40 42 43 45 47 48 48 46 45 44 42 40 38
28 28 28 29 32 31 31 30 30 30 30 31 32 32 32 33 34 35 36 37 37 38 38 36 38 39 40 41 43 44 46 47 45 44 43 42 40 39
27 27 28 29 31 30 29 28 27 28 29 30 30 31 33 35 36 36 35 34 32 33 37 37 37 36 35 36 37 40 43 46 45 43 42 40 39 38
26 26 28 29 30 30 29 28 27 27 28 28 29 32 33 35 36 37 36 34 33 33 36 35 35 34 34 32 33 35 38 43 42 42 41 38 36 35
26 25 26 29 30 29 29 28 28 28 27 26 27 28 30 34 35 36 36 35 33 32 36 35 33 32 32 32 31 32 34 37 39 39 38 37 35 35
28 27 28 30 29 28 27 27 27 27 27 26 26 27 28 30 33 35 35 34 34 32 34 34 34 33 32 30 29 31 31 32 33 32 32 32 32 34
29 29 29 29 27 26 26 26 26 26 26 26 26 27 28 28 32 34 34 34 33 32 31 32 33 32 32 31 29 29 30 30 32 31 31 31 30 27
28 28 29 27 25 25 25 26 26 25 25 25 26 26 27 29 31 33 31 31 30 29 29 31 31 32 31 31 30 29 30 28 30 30 30 29 27 29
28 28 27 25 24 24 24 24 24 23 24 25 26 26 28 28 29 32 31 30 28 28 28 26 29 30 30 30 28 29 29 29 30 29 27 26 24 26
27 25 25 24 23 23 22 22 23 23 25 25 26 27 27 27 28 30 31 30 28 28 29 26 26 27 28 28 31 28 28 28 29 29 27 23 22 26
26 24 23 24 23 22 22 22 23 22 23 24 25 26 26 27 28 28 29 30 28 29 30 27 26 26 25 23 26 31 27 27 27 27 26 26 23 26
24 23 23 23 22 22 22 21 22 21 21 23 24 25 25 25 26 27 29 29 28 28 29 27 27 26 27 24 23 26 29 26 26 26 27 29 30 30
23 23 22 22 22 21 21 22 23 22 23 23 23 24 24 24 25 27 29 30 30 29 27 26 27 31 28 27 23 24 28 30 28 26 26 24 24 25
22 22 22 22 22 22 22 22 22 22 22 22 23 23 23 24 25 26 28 28 29 28 28 29 30 28 28 26 22 23 26 29 30 29 28 27 21 19
22 23 22 22 23 22 22 23 22 21 20 21 22 22 23 23 24 25 28 29 29 28 27 25 27 28 27 25 23 24 25 26 28 27 29 31 31 30

GFSNE_sfc_30mbdewp_132.txt.gz
Dewpoint
58 59 58 58 59 58 58 57 55 51 51 51 52 54 55 54 53 53 53 52 51 50 49 49 50 50 50 50 50 50 51 53 55 57 58 58 58 58
59 58 58 59 58 58 57 56 55 54 51 53 51 50 51 51 51 50 48 48 47 47 45 47 47 47 46 47 47 48 48 50 53 55 56 57 57 58
56 57 54 54 53 52 51 51 49 50 51 50 50 49 46 46 44 44 45 45 45 44 45 45 45 46 46 46 47 47 47 48 49 51 54 54 55 57
47 48 48 47 46 47 46 45 44 44 45 44 45 43 42 39 39 38 40 40 41 43 41 38 37 37 41 45 46 47 47 46 47 47 49 52 53 54
43 43 43 43 43 43 43 41 41 41 40 39 38 38 38 37 36 38 37 38 39 39 37 37 35 38 40 39 41 43 44 44 44 46 47 49 51 54
41 39 39 40 39 38 36 36 35 35 35 35 34 34 35 35 35 34 33 35 35 36 36 36 38 38 39 40 40 41 42 43 44 45 46 48 51 54
38 38 39 39 38 36 34 33 33 32 32 32 31 32 32 31 31 33 33 32 32 33 34 35 36 37 38 37 38 40 41 42 43 44 45 46 48 52
32 33 33 32 33 33 33 32 32 31 31 31 31 29 30 31 31 31 30 30 29 33 33 34 36 35 36 36 37 39 40 41 42 43 44 45 46 50
29 31 31 33 31 31 31 30 30 29 30 30 29 29 29 30 29 30 31 33 33 34 34 33 34 33 35 36 38 39 39 40 40 41 42 43 45 46
29 28 30 30 32 31 29 29 29 28 29 29 29 29 29 31 31 32 33 33 33 33 34 31 33 33 35 36 37 38 39 38 38 39 39 40 43 45
26 28 29 29 31 31 29 28 28 27 28 29 29 29 28 28 29 32 32 30 28 29 31 33 33 33 33 34 35 36 36 36 37 38 42 44 44 47
27 26 30 30 31 30 29 28 26 27 28 26 26 26 27 27 27 28 29 28 28 29 32 32 32 33 30 35 35 35 33 34 35 37 41 43 40 37
27 27 27 30 31 29 29 27 27 28 25 25 25 25 26 26 26 25 27 29 28 29 31 33 30 30 31 31 34 33 32 32 32 34 35 38 37 36
29 29 28 31 30 30 27 27 27 27 25 23 24 23 24 23 26 28 29 30 32 31 33 33 29 29 29 28 29 32 31 31 32 32 32 34 34 35
29 30 30 30 30 28 27 26 26 24 23 23 23 24 25 25 27 28 30 31 31 32 33 32 30 29 28 27 28 29 30 30 31 31 30 30 30 30
28 28 30 29 27 27 25 25 25 23 23 23 23 25 24 25 26 27 27 28 29 29 29 28 30 28 27 28 28 27 28 27 29 29 29 28 28 30
28 27 26 25 24 24 24 23 23 22 23 24 22 22 23 24 24 24 25 27 27 27 27 28 29 28 29 28 25 26 27 28 28 28 28 26 25 27
27 25 24 24 24 24 23 22 22 22 23 23 23 23 22 23 23 23 23 24 25 26 27 27 28 26 25 27 29 26 26 26 27 28 28 23 22 26
27 24 24 23 24 23 22 22 22 22 23 22 22 22 23 23 22 21 21 22 23 25 27 28 27 24 22 21 25 29 26 26 27 27 27 25 24 28
24 23 23 24 24 22 22 22 22 22 22 21 21 21 19 21 21 20 21 21 22 24 27 28 27 25 23 22 24 25 29 26 26 26 27 29 28 29
24 23 23 23 23 22 23 23 22 22 22 21 19 19 20 20 19 20 21 21 23 23 24 25 28 31 27 26 23 24 28 29 27 25 27 26 25 26
24 23 22 24 24 24 23 23 22 20 20 20 19 19 19 20 19 19 20 20 21 22 24 27 28 28 25 24 23 24 26 29 30 30 31 30 26 22
24 23 23 23 24 24 24 23 22 21 21 20 20 19 19 18 19 20 20 21 21 22 24 25 26 26 26 24 24 24 25 26 28 29 30 32 30 32

GFSNE_sfc_30mbdewp_135.txt.gz
Dewpoint
57 57 57 58 58 58 58 57 55 51 51 53 53 53 53 52 51 51 49 49 49 48 47 46 47 47 47 47 47 47 47 48 48 49 51 54 55 58
58 58 58 58 58 58 58 57 57 55 51 53 50 50 48 49 47 46 47 47 46 45 44 45 45 45 44 45 45 45 45 46 46 48 49 51 53 55
53 54 54 53 54 52 51 52 50 50 52 49 48 47 45 41 42 42 44 41 42 42 42 40 39 38 37 39 42 44 45 45 45 45 45 46 48 51
47 47 46 46 45 45 44 43 43 43 45 44 43 41 41 39 38 39 38 39 37 37 37 37 37 37 39 41 39 40 41 42 41 42 43 44 46 47
42 42 42 42 41 41 40 40 40 40 40 39 37 39 39 37 34 35 34 35 35 35 35 36 38 36 36 35 37 39 39 40 41 42 43 43 45 46
40 40 40 39 38 36 35 35 35 34 34 33 33 34 34 34 33 32 31 33 32 33 34 36 34 35 36 37 37 37 38 40 40 41 41 42 43 44
38 38 38 38 37 35 33 33 32 31 30 30 30 30 30 30 30 31 30 31 31 33 33 33 34 35 35 36 36 37 39 39 39 40 41 41 42 43
33 32 32 32 33 33 32 31 31 30 29 30 29 29 29 29 30 29 29 29 28 32 33 32 34 34 34 35 36 37 38 38 39 39 39 40 41 41
32 32 32 32 31 30 31 30 30 30 30 30 28 28 29 29 29 29 30 31 31 31 32 30 32 32 33 35 35 36 38 39 38 38 39 38 40 41
29 30 30 31 32 30 29 28 28 28 29 29 29 29 29 29 28 30 32 32 32 32 32 27 31 32 34 33 34 36 38 36 36 37 37 38 41 42
28 29 29 30 31 32 28 27 26 27 29 29 28 28 28 28 27 29 27 27 25 26 30 32 32 31 31 31 33 36 35 36 36 35 37 41 42 43
26 28 31 30 31 31 28 26 26 27 27 24 24 25 27 27 26 25 25 25 26 26 32 29 30 30 28 32 33 32 33 34 34 34 36 38 39 37
27 27 27 31 31 30 29 26 27 27 25 23 23 24 25 25 24 25 27 28 27 26 29 31 30 30 29 29 31 30 33 31 31 32 34 35 37 37
29 28 28 31 30 30 27 27 28 25 23 23 23 23 24 24 24 26 27 29 30 29 30 32 29 29 28 26 25 29 31 30 30 30 32 32 33 33
29 30 30 30 30 28 27 26 26 23 22 23 23 24 23 23 25 25 26 26 28 31 31 33 31 30 28 26 25 27 28 28 29 30 29 29 29 29
29 28 29 29 28 27 25 25 25 23 23 23 22 21 21 21 22 23 23 23 24 25 27 28 29 29 26 26 27 26 27 26 27 27 28 28 26 27
29 28 26 25 25 24 24 23 23 22 21 23 22 21 22 22 22 22 22 21 22 23 24 26 26 28 28 27 25 27 26 26 26 27 27 25 24 24
28 26 25 24 24 24 24 23 22 22 21 21 21 21 21 21 21 22 20 20 21 22 23 25 26 25 23 24 28 27 25 25 25 27 27 24 22 23
27 26 24 23 24 24 24 22 22 21 21 21 20 19 20 20 19 19 19 20 20 21 22 24 26 24 21 20 22 29 26 25 25 26 27 26 25 26
26 25 23 23 22 24 23 22 22 21 20 21 20 19 18 18 18 18 18 19 20 22 22 22 25 25 22 22 23 25 27 26 25 25 26 27 27 29
25 24 24 23 22 22 22 22 22 22 22 22 18 18 18 18 18 18 19 20 21 20 20 20 23 29 29 25 23 23 26 30 29 25 26 26 26 27
26 24 24 23 23 24 24 23 23 22 20 19 19 19 18 18 18 18 18 19 19 20 20 21 24 26 25 23 22 23 25 27 29 31 32 31 26 24
25 24 24 24 23 24 24 24 23 21 20 20 20 19 18 17 18 18 19 19 19 19 20 21 23 25 25 24 24 24 25 26 28 29 30 33 32 31

GFSNE_sfc_30mbdewp_138.txt.gz
Dewpoint
56 57 58 58 58 58 58 57 54 51 50 52 53 50 50 47 47 47 47 47 47 46 47 47 48 47 46 45 45 45 45 45 45 46 47 48 49 50
56 57 57 58 58 58 57 57 57 54 50 53 48 46 44 43 42 44 43 43 44 45 45 45 43 41 40 39 40 41 43 43 44 44 45 46 45 46
51 51 49 51 50 49 49 49 48 48 51 48 47 46 41 40 40 42 41 41 40 39 39 39 38 38 38 40 41 41 40 41 41 41 42 42 43 43
46 46 46 45 44 44 43 42 42 42 44 44 42 40 40 39 39 37 37 37 36 36 36 37 38 38 36 37 36 37 37 38 39 40 40 41 41 42
42 43 42 42 40 40 39 38 38 38 38 37 37 38 39 34 33 34 33 34 34 34 34 36 35 35 35 36 37 38 38 38 40 39 39 40 40 41
40 39 37 37 36 35 35 34 34 33 32 32 32 33 32 33 32 31 30 31 31 32 34 35 34 34 35 36 36 37 38 38 38 38 39 40 41 41
37 37 37 36 35 33 32 31 30 30 29 29 28 28 29 29 29 30 29 30 30 33 32 31 32 33 34 35 35 36 36 37 38 40 39 38 38 39
32 31 32 33 33 32 32 32 31 28 28 28 28 27 28 29 30 29 29 29 27 32 31 30 31 30 33 34 35 35 36 39 39 38 38 38 38 36
31 31 31 32 30 29 30 30 31 31 30 29 27 28 28 28 29 27 28 29 29 31 31 28 29 28 32 33 33 34 36 39 36 36 36 36 37 38
31 30 31 31 31 29 28 27 27 28 29 29 28 28 29 29 29 29 29 28 27 27 28 26 29 30 30 31 33 34 37 35 35 35 35 35 40 40
29 29 30 30 32 31 28 26 26 27 30 28 27 28 28 29 28 26 24 23 23 23 27 30 30 28 28 29 31 35 31 31 33 34 34 34 38 39
28 30 31 31 31 32 27 25 26 27 27 23 23 25 26 26 25 25 24 24 25 23 30 27 27 29 27 29 32 30 30 32 31 32 33 33 35 37
26 26 27 31 31 30 29 26 28 27 24 23 23 23 24 24 23 24 25 26 25 25 27 28 29 29 28 27 27 27 29 29 31 31 31 32 33 34
27 28 28 32 31 30 28 27 29 24 23 23 23 23 23 21 22 24 25 25 26 27 29 30 28 29 27 25 24 26 27 28 30 29 30 30 31 31
29 29 31 30 30 28 28 27 26 23 23 23 22 21 21 21 22 22 23 24 23 25 27 28 29 30 28 26 25 25 26 27 28 28 27 27 27 28
30 29 30 29 28 27 26 25 24 23 23 22 22 21 21 21 21 21 21 20 21 22 24 24 26 28 26 26 26 25 26 25 27 27 27 27 27 27
28 28 27 25 25 24 24 24 23 22 22 22 20 20 21 20 20 20 20 19 20 21 21 22 24 26 27 27 25 26 27 26 27 25 26 26 26 24
30 27 26 25 24 23 23 24 23 22 21 21 20 20 19 19 19 18 17 18 18 20 20 20 22 24 23 23 27 25 27 25 25 25 25 25 23 24
29 28 26 24 23 23 23 23 22 22 21 20 19 18 18 18 18 17 16 17 17 18 19 21 21 23 20 19 22 28 27 25 25 24 24 25 25 26
28 27 26 23 23 23 23 22 22 22 21 20 19 19 17 16 16 16 16 16 17 20 20 19 20 22 22 23 22 23 28 26 25 24 24 26 27 29
26 25 25 23 23 22 22 22 23 22 21 21 20 17 18 16 17 16 16 18 20 18 17 18 20 24 26 25 22 22 24 28 30 26 26 25 25 27
26 26 25 24 23 22 22 23 22 22 21 20 19 18 18 17 17 16 17 16 17 18 18 19 20 22 23 23 22 22 23 25 27 31 32 31 27 23
27 26 25 24 23 23 23 23 23 22 20 20 19 19 18 18 17 17 17 17 18 18 19 18 19 21 23 23 24 23 24 24 27 28 30 32 32 31